Wetterdaten: Freitag, 19.03.2021
Datum Zeit Temp. Aussen Temp. o. S. Temp +5cm Feuchte Auss Luftdruck Regen Sonnenschein Regendauer Solar Windben Empfang
19.03.2021 00:00 4,1 C 3,9 C 2,8 C 96 % 1019,0 hPa 0,0 l/m 0 min 0 min 0 W/m 6,4 km/h (2 Bft) 97,87 %
19.03.2021 00:02 4,1 C 3,9 C 2,8 C 96 % 1019,0 hPa 0,0 l/m 0 min 0 min 0 W/m 9,7 km/h (2 Bft) 100,00 %
19.03.2021 00:04 4,1 C 3,9 C 2,8 C 96 % 1019,0 hPa 0,0 l/m 0 min 0 min 0 W/m 12,9 km/h (3 Bft) 100,00 %
19.03.2021 00:08 4,1 C 3,9 C 2,8 C 96 % 1019,1 hPa 0,0 l/m 0 min 0 min 0 W/m 9,7 km/h (2 Bft) 98,96 %
19.03.2021 00:10 4,1 C 3,9 C 2,8 C 96 % 1019,2 hPa 0,0 l/m 0 min 0 min 0 W/m 12,9 km/h (3 Bft) 97,83 %
19.03.2021 00:12 4,1 C 3,9 C 2,8 C 96 % 1019,2 hPa 0,0 l/m 0 min 0 min 0 W/m 12,9 km/h (3 Bft) 100,00 %
19.03.2021 00:14 4,1 C 3,9 C 2,8 C 96 % 1019,2 hPa 0,0 l/m 0 min 0 min 0 W/m 12,9 km/h (3 Bft) 97,87 %
19.03.2021 00:16 4,1 C 3,9 C 2,8 C 96 % 1019,2 hPa 0,0 l/m 0 min 0 min 0 W/m 16,1 km/h (3 Bft) 97,87 %
19.03.2021 00:18 4,1 C 3,9 C 2,8 C 96 % 1019,2 hPa 0,0 l/m 0 min 0 min 0 W/m 12,9 km/h (3 Bft) 100,00 %
19.03.2021 00:20 4,1 C 3,9 C 2,8 C 96 % 1019,3 hPa 0,0 l/m 0 min 0 min 0 W/m 12,9 km/h (3 Bft) 100,00 %
19.03.2021 00:22 4,1 C 3,9 C 2,8 C 96 % 1019,2 hPa 0,0 l/m 0 min 0 min 0 W/m 12,9 km/h (3 Bft) 97,87 %
19.03.2021 00:24 4,1 C 3,9 C 2,8 C 96 % 1019,2 hPa 0,0 l/m 0 min 0 min 0 W/m 6,4 km/h (2 Bft) 95,74 %
19.03.2021 00:26 4,1 C 3,9 C 2,8 C 96 % 1019,2 hPa 0,0 l/m 0 min 0 min 0 W/m 9,7 km/h (2 Bft) 100,00 %
19.03.2021 00:28 4,1 C 3,9 C 2,8 C 96 % 1019,3 hPa 0,0 l/m 0 min 0 min 0 W/m 12,9 km/h (3 Bft) 100,00 %
19.03.2021 00:30 4,1 C 3,9 C 2,8 C 96 % 1019,3 hPa 0,0 l/m 0 min 0 min 0 W/m 16,1 km/h (3 Bft) 100,00 %
19.03.2021 00:32 4,1 C 3,9 C 2,8 C 96 % 1019,3 hPa 0,0 l/m 0 min 0 min 0 W/m 22,5 km/h (4 Bft) 100,00 %
19.03.2021 00:34 4,1 C 3,9 C 2,8 C 96 % 1019,3 hPa 0,0 l/m 0 min 0 min 0 W/m 19,3 km/h (3 Bft) 97,83 %
19.03.2021 00:36 4,1 C 3,9 C 2,8 C 96 % 1019,3 hPa 0,0 l/m 0 min 0 min 0 W/m 12,9 km/h (3 Bft) 100,00 %
19.03.2021 00:38 4,1 C 3,9 C 2,8 C 96 % 1019,3 hPa 0,0 l/m 0 min 0 min 0 W/m 6,4 km/h (2 Bft) 100,00 %
19.03.2021 00:40 4,1 C 3,9 C 2,8 C 96 % 1019,3 hPa 0,0 l/m 0 min 0 min 0 W/m 16,1 km/h (3 Bft) 100,00 %
19.03.2021 00:42 4,1 C 3,9 C 2,8 C 96 % 1019,3 hPa 0,0 l/m 0 min 0 min 0 W/m 16,1 km/h (3 Bft) 100,00 %
19.03.2021 00:44 4,1 C 3,9 C 2,8 C 96 % 1019,3 hPa 0,0 l/m 0 min 0 min 0 W/m 12,9 km/h (3 Bft) 100,00 %
19.03.2021 00:46 4,1 C 3,9 C 2,8 C 96 % 1019,4 hPa 0,0 l/m 0 min 0 min 0 W/m 9,7 km/h (2 Bft) 100,00 %
19.03.2021 00:48 4,1 C 3,9 C 2,8 C 96 % 1019,4 hPa 0,0 l/m 0 min 0 min 0 W/m 12,9 km/h (3 Bft) 100,00 %
19.03.2021 00:50 4,0 C 3,9 C 2,8 C 96 % 1019,4 hPa 0,0 l/m 0 min 0 min 0 W/m 12,9 km/h (3 Bft) 100,00 %
19.03.2021 00:52 4,0 C 3,9 C 2,3 C 96 % 1019,5 hPa 0,0 l/m 0 min 0 min 0 W/m 9,7 km/h (2 Bft) 100,00 %
19.03.2021 00:54 4,0 C 3,9 C 2,3 C 96 % 1019,4 hPa 0,0 l/m 0 min 0 min 0 W/m 22,5 km/h (4 Bft) 100,00 %
19.03.2021 00:56 4,0 C 3,9 C 2,3 C 96 % 1019,4 hPa 0,0 l/m 0 min 0 min 0 W/m 16,1 km/h (3 Bft) 97,87 %
19.03.2021 00:58 3,9 C 3,3 C 2,3 C 96 % 1019,4 hPa 0,0 l/m 0 min 0 min 0 W/m 12,9 km/h (3 Bft) 100,00 %
19.03.2021 01:00 3,9 C 3,3 C 2,3 C 95 % 1019,4 hPa 0,0 l/m 0 min 0 min 0 W/m 16,1 km/h (3 Bft) 100,00 %
19.03.2021 01:02 3,9 C 3,3 C 2,3 C 95 % 1019,4 hPa 0,0 l/m 0 min 0 min 0 W/m 12,9 km/h (3 Bft) 100,00 %
19.03.2021 01:04 3,9 C 3,3 C 2,3 C 95 % 1019,5 hPa 0,0 l/m 0 min 0 min 0 W/m 12,9 km/h (3 Bft) 100,00 %
19.03.2021 01:06 3,8 C 3,3 C 2,3 C 95 % 1019,5 hPa 0,0 l/m 0 min 0 min 0 W/m 16,1 km/h (3 Bft) 97,87 %
19.03.2021 01:08 3,8 C 3,3 C 2,3 C 95 % 1019,5 hPa 0,0 l/m 0 min 0 min 0 W/m 12,9 km/h (3 Bft) 100,00 %
19.03.2021 01:10 3,8 C 3,3 C 2,3 C 95 % 1019,5 hPa 0,0 l/m 0 min 0 min 0 W/m 12,9 km/h (3 Bft) 97,87 %
19.03.2021 01:12 3,8 C 3,3 C 2,3 C 95 % 1019,6 hPa 0,0 l/m 0 min 0 min 0 W/m 12,9 km/h (3 Bft) 100,00 %
19.03.2021 01:14 3,8 C 3,3 C 2,3 C 95 % 1019,6 hPa 0,0 l/m 0 min 0 min 0 W/m 9,7 km/h (2 Bft) 100,00 %
19.03.2021 01:16 3,7 C 3,3 C 2,3 C 95 % 1019,6 hPa 0,0 l/m 0 min 0 min 0 W/m 19,3 km/h (3 Bft) 97,87 %
19.03.2021 01:18 3,7 C 3,3 C 2,3 C 95 % 1019,6 hPa 0,0 l/m 0 min 0 min 0 W/m 19,3 km/h (3 Bft) 55,56 %
19.03.2021 01:20 3,7 C 3,3 C 2,3 C 94 % 1019,6 hPa 0,0 l/m 0 min 0 min 0 W/m 6,4 km/h (2 Bft) 95,74 %
19.03.2021 01:22 3,8 C 3,3 C 2,3 C 94 % 1019,7 hPa 0,0 l/m 0 min 0 min 0 W/m 16,1 km/h (3 Bft) 100,00 %
19.03.2021 01:24 3,7 C 3,3 C 2,3 C 94 % 1019,7 hPa 0,0 l/m 0 min 0 min 0 W/m 16,1 km/h (3 Bft) 97,83 %
19.03.2021 01:26 3,7 C 3,3 C 2,3 C 94 % 1019,7 hPa 0,0 l/m 0 min 0 min 0 W/m 6,4 km/h (2 Bft) 95,74 %
19.03.2021 01:28 3,7 C 3,3 C 2,3 C 94 % 1019,8 hPa 0,0 l/m 0 min 0 min 0 W/m 6,4 km/h (2 Bft) 97,87 %
19.03.2021 01:30 3,6 C 3,3 C 2,3 C 94 % 1019,8 hPa 0,0 l/m 0 min 0 min 0 W/m 12,9 km/h (3 Bft) 97,87 %
19.03.2021 01:32 3,6 C 2,8 C 2,3 C 94 % 1019,8 hPa 0,0 l/m 0 min 0 min 0 W/m 9,7 km/h (2 Bft) 97,87 %
19.03.2021 01:34 3,6 C 2,8 C 2,3 C 94 % 1019,8 hPa 0,0 l/m 0 min 0 min 0 W/m 6,4 km/h (2 Bft) 97,83 %
19.03.2021 01:36 3,6 C 3,3 C 2,3 C 94 % 1019,8 hPa 0,0 l/m 0 min 0 min 0 W/m 16,1 km/h (3 Bft) 97,87 %
19.03.2021 01:38 3,6 C 3,3 C 2,3 C 94 % 1019,9 hPa 0,0 l/m 0 min 0 min 0 W/m 16,1 km/h (3 Bft) 97,87 %
19.03.2021 01:40 3,6 C 3,3 C 2,3 C 93 % 1019,9 hPa 0,0 l/m 0 min 0 min 0 W/m 6,4 km/h (2 Bft) 97,87 %
19.03.2021 01:42 3,6 C 3,3 C 2,3 C 93 % 1019,9 hPa 0,0 l/m 0 min 0 min 0 W/m 9,7 km/h (2 Bft) 97,87 %
19.03.2021 01:44 3,6 C 3,3 C 2,3 C 93 % 1019,9 hPa 0,0 l/m 0 min 0 min 0 W/m 6,4 km/h (2 Bft) 97,87 %
19.03.2021 01:46 3,6 C 3,3 C 2,3 C 93 % 1019,9 hPa 0,0 l/m 0 min 0 min 0 W/m 12,9 km/h (3 Bft) 97,83 %
19.03.2021 01:48 3,6 C 3,3 C 2,3 C 93 % 1019,9 hPa 0,0 l/m 0 min 0 min 0 W/m 22,5 km/h (4 Bft) 97,87 %
19.03.2021 01:50 3,6 C 3,3 C 2,3 C 93 % 1019,9 hPa 0,0 l/m 0 min 0 min 0 W/m 19,3 km/h (3 Bft) 97,87 %
19.03.2021 01:52 3,6 C 3,3 C 2,3 C 93 % 1019,9 hPa 0,0 l/m 0 min 0 min 0 W/m 16,1 km/h (3 Bft) 97,87 %
19.03.2021 01:54 3,6 C 3,3 C 2,3 C 93 % 1020,0 hPa 0,0 l/m 0 min 0 min 0 W/m 6,4 km/h (2 Bft) 97,87 %
19.03.2021 01:56 3,6 C 3,3 C 2,3 C 93 % 1020,0 hPa 0,0 l/m 0 min 0 min 0 W/m 19,3 km/h (3 Bft) 97,87 %
19.03.2021 01:58 3,6 C 3,3 C 2,3 C 93 % 1020,0 hPa 0,0 l/m 0 min 0 min 0 W/m 12,9 km/h (3 Bft) 91,30 %
19.03.2021 02:00 3,6 C 3,3 C 2,3 C 93 % 1020,0 hPa 0,0 l/m 0 min 0 min 0 W/m 9,7 km/h (2 Bft) 93,62 %
19.03.2021 02:02 3,6 C 3,3 C 2,3 C 93 % 1020,1 hPa 0,0 l/m 0 min 0 min 0 W/m 16,1 km/h (3 Bft) 95,74 %
19.03.2021 02:04 3,6 C 3,3 C 2,3 C 93 % 1020,1 hPa 0,0 l/m 0 min 0 min 0 W/m 12,9 km/h (3 Bft) 95,74 %
19.03.2021 02:06 3,6 C 3,3 C 2,3 C 93 % 1020,1 hPa 0,0 l/m 0 min 0 min 0 W/m 12,9 km/h (3 Bft) 95,74 %
19.03.2021 02:08 3,6 C 3,3 C 2,3 C 93 % 1020,1 hPa 0,0 l/m 0 min 0 min 0 W/m 16,1 km/h (3 Bft) 97,87 %
19.03.2021 02:10 3,6 C 3,3 C 2,3 C 93 % 1020,0 hPa 0,0 l/m 0 min 0 min 0 W/m 12,9 km/h (3 Bft) 97,83 %
19.03.2021 02:12 3,6 C 3,3 C 2,3 C 93 % 1020,1 hPa 0,0 l/m 0 min 0 min 0 W/m 25,7 km/h (4 Bft) 97,87 %
19.03.2021 02:14 3,5 C 3,3 C 2,3 C 93 % 1020,0 hPa 0,0 l/m 0 min 0 min 0 W/m 19,3 km/h (3 Bft) 97,87 %
19.03.2021 02:16 3,5 C 3,3 C 2,3 C 92 % 1020,0 hPa 0,0 l/m 0 min 0 min 0 W/m 19,3 km/h (3 Bft) 56,52 %
19.03.2021 02:18 3,5 C 2,8 C 2,3 C 92 % 1020,0 hPa 0,0 l/m 0 min 0 min 0 W/m 16,1 km/h (3 Bft) 97,87 %
19.03.2021 02:20 3,5 C 2,8 C 2,3 C 92 % 1020,0 hPa 0,0 l/m 0 min 0 min 0 W/m 9,7 km/h (2 Bft) 95,74 %
19.03.2021 02:22 3,5 C 2,8 C 1,7 C 92 % 1020,0 hPa 0,0 l/m 0 min 0 min 0 W/m 9,7 km/h (2 Bft) 97,83 %
19.03.2021 02:24 3,5 C 2,8 C 1,7 C 92 % 1020,0 hPa 0,0 l/m 0 min 0 min 0 W/m 16,1 km/h (3 Bft) 97,87 %
19.03.2021 02:26 3,4 C 2,8 C 1,7 C 92 % 1020,0 hPa 0,0 l/m 0 min 0 min 0 W/m 12,9 km/h (3 Bft) 97,87 %
19.03.2021 02:28 3,4 C 2,8 C 1,7 C 92 % 1020,0 hPa 0,0 l/m 0 min 0 min 0 W/m 9,7 km/h (2 Bft) 97,87 %
19.03.2021 02:30 3,4 C 2,8 C 1,7 C 92 % 1020,0 hPa 0,0 l/m 0 min 0 min 0 W/m 6,4 km/h (2 Bft) 97,87 %
19.03.2021 02:32 3,3 C 2,8 C 1,7 C 92 % 1020,1 hPa 0,0 l/m 0 min 0 min 0 W/m 6,4 km/h (2 Bft) 97,87 %
19.03.2021 02:34 3,3 C 2,2 C 1,7 C 92 % 1020,2 hPa 0,0 l/m 0 min 0 min 0 W/m 12,9 km/h (3 Bft) 95,65 %
19.03.2021 02:36 3,3 C 2,2 C 1,7 C 92 % 1020,2 hPa 0,0 l/m 0 min 0 min 0 W/m 12,9 km/h (3 Bft) 95,74 %
19.03.2021 02:38 3,3 C 2,8 C 1,7 C 92 % 1020,2 hPa 0,0 l/m 0 min 0 min 0 W/m 16,1 km/h (3 Bft) 95,74 %
19.03.2021 02:40 3,2 C 2,8 C 1,7 C 92 % 1020,3 hPa 0,0 l/m 0 min 0 min 0 W/m 22,5 km/h (4 Bft) 97,87 %
19.03.2021 02:42 3,2 C 2,8 C 1,7 C 92 % 1020,3 hPa 0,0 l/m 0 min 0 min 0 W/m 29,0 km/h (5 Bft) 97,87 %
19.03.2021 02:44 3,2 C 2,8 C 1,7 C 92 % 1020,2 hPa 0,0 l/m 0 min 0 min 0 W/m 9,7 km/h (2 Bft) 95,74 %
19.03.2021 02:46 3,2 C 2,8 C 1,7 C 92 % 1020,2 hPa 0,0 l/m 0 min 0 min 0 W/m 3,2 km/h (1 Bft) 98,28 %
19.03.2021 02:48 3,1 C 2,8 C 1,7 C 92 % 1020,3 hPa 0,0 l/m 0 min 0 min 0 W/m 6,4 km/h (2 Bft) 94,29 %
19.03.2021 02:50 3,1 C 2,8 C 1,7 C 92 % 1020,4 hPa 0,0 l/m 0 min 0 min 0 W/m 12,9 km/h (3 Bft) 96,61 %
19.03.2021 02:52 3,1 C 2,2 C 1,7 C 91 % 1020,4 hPa 0,0 l/m 0 min 0 min 0 W/m 12,9 km/h (3 Bft) 97,87 %
19.03.2021 02:54 3,1 C 2,2 C 1,7 C 91 % 1020,3 hPa 0,0 l/m 0 min 0 min 0 W/m 12,9 km/h (3 Bft) 97,14 %
19.03.2021 02:56 3,1 C 2,2 C 1,7 C 91 % 1020,4 hPa 0,0 l/m 0 min 0 min 0 W/m 19,3 km/h (3 Bft) 98,28 %
19.03.2021 02:58 3,1 C 2,2 C 1,7 C 91 % 1020,5 hPa 0,0 l/m 0 min 0 min 0 W/m 12,9 km/h (3 Bft) 97,87 %
19.03.2021 03:00 3,1 C 2,2 C 1,7 C 91 % 1020,5 hPa 0,0 l/m 0 min 0 min 0 W/m 9,7 km/h (2 Bft) 100,00 %
19.03.2021 03:02 3,0 C 2,2 C 1,7 C 91 % 1020,4 hPa 0,0 l/m 0 min 0 min 0 W/m 6,4 km/h (2 Bft) 100,00 %
19.03.2021 03:04 3,0 C 2,2 C 1,1 C 91 % 1020,4 hPa 0,0 l/m 0 min 0 min 0 W/m 16,1 km/h (3 Bft) 96,61 %
19.03.2021 03:06 3,0 C 2,2 C 1,1 C 91 % 1020,4 hPa 0,0 l/m 0 min 0 min 0 W/m 3,2 km/h (1 Bft) 100,00 %
19.03.2021 03:08 3,0 C 2,2 C 1,1 C 91 % 1020,4 hPa 0,0 l/m 0 min 0 min 0 W/m 16,1 km/h (3 Bft) 100,00 %
19.03.2021 03:10 3,0 C 2,2 C 1,1 C 91 % 1020,4 hPa 0,0 l/m 0 min 0 min 0 W/m 12,9 km/h (3 Bft) 91,43 %
19.03.2021 03:12 2,9 C 2,2 C 1,1 C 91 % 1020,4 hPa 0,0 l/m 0 min 0 min 0 W/m 12,9 km/h (3 Bft) 59,09 %
19.03.2021 03:14 2,9 C 2,2 C 1,1 C 91 % 1020,4 hPa 0,0 l/m 0 min 0 min 0 W/m 9,7 km/h (2 Bft) 100,00 %
19.03.2021 03:16 2,9 C 2,2 C 1,1 C 91 % 1020,4 hPa 0,0 l/m 0 min 0 min 0 W/m 12,9 km/h (3 Bft) 100,00 %
19.03.2021 03:18 2,9 C 2,2 C 1,1 C 91 % 1020,4 hPa 0,0 l/m 0 min 0 min 0 W/m 22,5 km/h (4 Bft) 100,00 %
19.03.2021 03:20 2,8 C 2,2 C 1,1 C 91 % 1020,5 hPa 0,0 l/m 0 min 0 min 0 W/m 9,7 km/h (2 Bft) 100,00 %
19.03.2021 03:22 2,8 C 2,2 C 1,1 C 92 % 1020,5 hPa 0,0 l/m 0 min 0 min 0 W/m 12,9 km/h (3 Bft) 100,00 %
19.03.2021 03:24 2,8 C 2,2 C 1,1 C 91 % 1020,6 hPa 0,0 l/m 0 min 0 min 0 W/m 9,7 km/h (2 Bft) 100,00 %
19.03.2021 03:26 2,8 C 2,2 C 1,1 C 91 % 1020,6 hPa 0,0 l/m 0 min 0 min 0 W/m 6,4 km/h (2 Bft) 100,00 %
19.03.2021 03:28 2,8 C 2,2 C 1,1 C 92 % 1020,5 hPa 0,0 l/m 0 min 0 min 0 W/m 6,4 km/h (2 Bft) 97,14 %
19.03.2021 03:30 2,8 C 1,7 C 1,1 C 92 % 1020,5 hPa 0,0 l/m 0 min 0 min 0 W/m 6,4 km/h (2 Bft) 100,00 %
19.03.2021 03:32 2,7 C 1,7 C 1,1 C 92 % 1020,5 hPa 0,0 l/m 0 min 0 min 0 W/m 3,2 km/h (1 Bft) 100,00 %
19.03.2021 03:34 2,7 C 1,7 C 1,1 C 92 % 1020,5 hPa 0,0 l/m 0 min 0 min 0 W/m 6,4 km/h (2 Bft) 100,00 %
19.03.2021 03:36 2,7 C 1,7 C 1,1 C 92 % 1020,6 hPa 0,0 l/m 0 min 0 min 0 W/m 19,3 km/h (3 Bft) 97,87 %
19.03.2021 03:38 2,6 C 1,7 C 1,1 C 92 % 1020,6 hPa 0,0 l/m 0 min 0 min 0 W/m 6,4 km/h (2 Bft) 97,87 %
19.03.2021 03:40 2,6 C 2,2 C 1,1 C 92 % 1020,6 hPa 0,0 l/m 0 min 0 min 0 W/m 3,2 km/h (1 Bft) 97,83 %
19.03.2021 03:42 2,6 C 1,7 C 1,1 C 92 % 1020,6 hPa 0,0 l/m 0 min 0 min 0 W/m 3,2 km/h (1 Bft) 97,87 %
19.03.2021 03:44 2,6 C 1,7 C 1,1 C 92 % 1020,6 hPa 0,0 l/m 0 min 0 min 0 W/m 3,2 km/h (1 Bft) 97,87 %
19.03.2021 03:46 2,6 C 2,2 C 1,1 C 92 % 1020,7 hPa 0,0 l/m 0 min 0 min 0 W/m 9,7 km/h (2 Bft) 93,62 %
19.03.2021 03:48 2,6 C 2,2 C 1,1 C 92 % 1020,7 hPa 0,0 l/m 0 min 0 min 0 W/m 6,4 km/h (2 Bft) 97,14 %
19.03.2021 03:50 2,7 C 2,2 C 1,1 C 92 % 1020,7 hPa 0,0 l/m 0 min 0 min 0 W/m 6,4 km/h (2 Bft) 95,74 %
19.03.2021 03:52 2,7 C 2,2 C 1,1 C 92 % 1020,7 hPa 0,0 l/m 0 min 0 min 0 W/m 3,2 km/h (1 Bft) 97,87 %
19.03.2021 03:54 2,7 C 2,2 C 1,1 C 93 % 1020,7 hPa 0,0 l/m 0 min 0 min 0 W/m 9,7 km/h (2 Bft) 97,87 %
19.03.2021 03:56 2,8 C 2,2 C 1,7 C 93 % 1020,7 hPa 0,0 l/m 0 min 0 min 0 W/m 6,4 km/h (2 Bft) 97,83 %
19.03.2021 03:58 2,7 C 2,2 C 1,7 C 92 % 1020,7 hPa 0,0 l/m 0 min 0 min 0 W/m 6,4 km/h (2 Bft) 95,74 %
19.03.2021 04:00 2,8 C 2,2 C 1,7 C 93 % 1020,7 hPa 0,0 l/m 0 min 0 min 0 W/m 12,9 km/h (3 Bft) 97,87 %
19.03.2021 04:02 2,8 C 2,2 C 1,7 C 93 % 1020,7 hPa 0,0 l/m 0 min 0 min 0 W/m 9,7 km/h (2 Bft) 100,00 %
19.03.2021 04:08 2,8 C 2,2 C 1,7 C 93 % 1020,8 hPa 0,0 l/m 0 min 0 min 0 W/m 6,4 km/h (2 Bft) 100,00 %
19.03.2021 04:10 2,8 C 2,2 C 1,7 C 93 % 1020,8 hPa 0,0 l/m 0 min 0 min 0 W/m 9,7 km/h (2 Bft) 95,74 %
19.03.2021 04:12 2,8 C 2,2 C 1,7 C 93 % 1020,9 hPa 0,0 l/m 0 min 0 min 0 W/m 9,7 km/h (2 Bft) 97,87 %
19.03.2021 04:14 2,8 C 2,2 C 1,7 C 93 % 1020,9 hPa 0,0 l/m 0 min 0 min 0 W/m 9,7 km/h (2 Bft) 95,74 %
19.03.2021 04:16 2,8 C 2,2 C 1,7 C 93 % 1020,9 hPa 0,0 l/m 0 min 0 min 0 W/m 12,9 km/h (3 Bft) 97,87 %
19.03.2021 04:21 2,8 C 2,2 C 1,7 C 93 % 1020,9 hPa 0,0 l/m 0 min 0 min 0 W/m 9,7 km/h (2 Bft) 98,59 %
19.03.2021 04:22 2,8 C 2,2 C 1,7 C 93 % 1020,9 hPa 0,0 l/m 0 min 0 min 0 W/m 3,2 km/h (1 Bft) 100,00 %
19.03.2021 04:24 2,7 C 2,2 C 1,7 C 93 % 1021,0 hPa 0,0 l/m 0 min 0 min 0 W/m 6,4 km/h (2 Bft) 100,00 %
19.03.2021 04:26 2,7 C 2,2 C 1,7 C 93 % 1021,0 hPa 0,0 l/m 0 min 0 min 0 W/m 3,2 km/h (1 Bft) 100,00 %
19.03.2021 04:28 2,7 C 2,2 C 1,7 C 93 % 1021,0 hPa 0,0 l/m 0 min 0 min 0 W/m 9,7 km/h (2 Bft) 100,00 %
19.03.2021 04:30 2,7 C 2,2 C 1,7 C 93 % 1021,1 hPa 0,0 l/m 0 min 0 min 0 W/m 9,7 km/h (2 Bft) 100,00 %
19.03.2021 04:32 2,7 C 2,2 C 1,7 C 93 % 1021,1 hPa 0,0 l/m 0 min 0 min 0 W/m 9,7 km/h (2 Bft) 100,00 %
19.03.2021 04:34 2,6 C 2,2 C 1,7 C 93 % 1021,1 hPa 0,0 l/m 0 min 0 min 0 W/m 9,7 km/h (2 Bft) 100,00 %
19.03.2021 04:36 2,6 C 2,2 C 1,1 C 93 % 1021,1 hPa 0,0 l/m 0 min 0 min 0 W/m 16,1 km/h (3 Bft) 97,87 %
19.03.2021 04:38 2,6 C 2,2 C 1,1 C 93 % 1021,2 hPa 0,0 l/m 0 min 0 min 0 W/m 19,3 km/h (3 Bft) 97,87 %
19.03.2021 04:40 2,6 C 2,2 C 1,1 C 93 % 1021,2 hPa 0,0 l/m 0 min 0 min 0 W/m 6,4 km/h (2 Bft) 100,00 %
19.03.2021 04:42 2,6 C 2,2 C 1,1 C 93 % 1021,2 hPa 0,0 l/m 0 min 0 min 0 W/m 9,7 km/h (2 Bft) 100,00 %
19.03.2021 04:44 2,6 C 2,2 C 1,7 C 93 % 1021,3 hPa 0,0 l/m 0 min 0 min 0 W/m 9,7 km/h (2 Bft) 97,87 %
19.03.2021 04:46 2,6 C 2,2 C 1,7 C 93 % 1021,3 hPa 0,0 l/m 0 min 0 min 0 W/m 16,1 km/h (3 Bft) 100,00 %
19.03.2021 04:48 2,6 C 2,2 C 1,1 C 93 % 1021,3 hPa 0,0 l/m 0 min 0 min 0 W/m 12,9 km/h (3 Bft) 100,00 %
19.03.2021 04:50 2,6 C 2,2 C 1,1 C 93 % 1021,4 hPa 0,0 l/m 0 min 0 min 0 W/m 22,5 km/h (4 Bft) 100,00 %
19.03.2021 04:52 2,6 C 2,2 C 1,1 C 93 % 1021,4 hPa 0,0 l/m 0 min 0 min 0 W/m 16,1 km/h (3 Bft) 97,83 %
19.03.2021 04:54 2,5 C 2,2 C 1,1 C 93 % 1021,5 hPa 0,0 l/m 0 min 0 min 0 W/m 12,9 km/h (3 Bft) 100,00 %
19.03.2021 04:56 2,5 C 2,2 C 1,1 C 93 % 1021,5 hPa 0,0 l/m 0 min 0 min 0 W/m 19,3 km/h (3 Bft) 100,00 %
19.03.2021 04:58 2,5 C 2,2 C 1,1 C 93 % 1021,5 hPa 0,0 l/m 0 min 0 min 0 W/m 16,1 km/h (3 Bft) 100,00 %
19.03.2021 05:00 2,5 C 2,2 C 1,1 C 93 % 1021,5 hPa 0,0 l/m 0 min 0 min 0 W/m 9,7 km/h (2 Bft) 97,87 %
19.03.2021 05:02 2,5 C 2,2 C 1,1 C 93 % 1021,5 hPa 0,0 l/m 0 min 0 min 0 W/m 6,4 km/h (2 Bft) 100,00 %
19.03.2021 05:04 2,4 C 2,2 C 1,1 C 93 % 1021,5 hPa 0,0 l/m 0 min 0 min 0 W/m 16,1 km/h (3 Bft) 100,00 %
19.03.2021 05:06 2,4 C 2,2 C 1,1 C 93 % 1021,5 hPa 0,0 l/m 0 min 0 min 0 W/m 16,1 km/h (3 Bft) 100,00 %
19.03.2021 05:08 2,4 C 1,7 C 1,1 C 93 % 1021,5 hPa 0,0 l/m 0 min 0 min 0 W/m 6,4 km/h (2 Bft) 97,87 %
19.03.2021 05:10 2,4 C 1,7 C 1,1 C 92 % 1021,5 hPa 0,0 l/m 0 min 0 min 0 W/m 6,4 km/h (2 Bft) 95,74 %
19.03.2021 05:12 2,4 C 1,7 C 1,1 C 92 % 1021,5 hPa 0,0 l/m 0 min 0 min 0 W/m 9,7 km/h (2 Bft) 97,87 %
19.03.2021 05:14 2,4 C 1,7 C 1,1 C 92 % 1021,6 hPa 0,0 l/m 0 min 0 min 0 W/m 6,4 km/h (2 Bft) 97,87 %
19.03.2021 05:16 2,4 C 1,7 C 1,1 C 93 % 1021,6 hPa 0,0 l/m 0 min 0 min 0 W/m 12,9 km/h (3 Bft) 97,83 %
19.03.2021 05:18 2,3 C 1,7 C 1,1 C 92 % 1021,6 hPa 0,0 l/m 0 min 0 min 0 W/m 9,7 km/h (2 Bft) 97,87 %
19.03.2021 05:20 2,3 C 1,7 C 1,1 C 92 % 1021,6 hPa 0,0 l/m 0 min 0 min 0 W/m 9,7 km/h (2 Bft) 97,87 %
19.03.2021 05:22 2,3 C 1,7 C 1,1 C 92 % 1021,7 hPa 0,0 l/m 0 min 0 min 0 W/m 6,4 km/h (2 Bft) 97,87 %
19.03.2021 05:24 2,3 C 1,7 C 1,1 C 92 % 1021,7 hPa 0,0 l/m 0 min 0 min 0 W/m 9,7 km/h (2 Bft) 97,87 %
19.03.2021 05:26 2,3 C 1,7 C 1,1 C 92 % 1021,8 hPa 0,0 l/m 0 min 0 min 0 W/m 9,7 km/h (2 Bft) 97,87 %
19.03.2021 05:28 2,3 C 1,7 C 1,1 C 92 % 1021,8 hPa 0,0 l/m 0 min 0 min 0 W/m 6,4 km/h (2 Bft) 95,65 %
19.03.2021 05:30 2,3 C 1,7 C 1,1 C 92 % 1021,8 hPa 0,0 l/m 0 min 0 min 0 W/m 6,4 km/h (2 Bft) 97,87 %
19.03.2021 05:32 2,3 C 1,7 C 1,1 C 92 % 1021,8 hPa 0,0 l/m 0 min 0 min 0 W/m 6,4 km/h (2 Bft) 95,83 %
19.03.2021 05:34 2,3 C 1,7 C 1,1 C 92 % 1021,7 hPa 0,0 l/m 0 min 0 min 0 W/m 9,7 km/h (2 Bft) 97,87 %
19.03.2021 05:36 2,2 C 1,7 C 1,1 C 92 % 1021,8 hPa 0,0 l/m 0 min 0 min 0 W/m 16,1 km/h (3 Bft) 95,74 %
19.03.2021 05:38 2,2 C 1,7 C 1,1 C 92 % 1021,8 hPa 0,0 l/m 0 min 0 min 0 W/m 12,9 km/h (3 Bft) 95,74 %
19.03.2021 05:40 2,1 C 1,7 C 1,1 C 92 % 1021,8 hPa 0,0 l/m 0 min 0 min 0 W/m 6,4 km/h (2 Bft) 93,48 %
19.03.2021 05:42 2,1 C 1,7 C 0,6 C 92 % 1021,8 hPa 0,0 l/m 0 min 0 min 0 W/m 6,4 km/h (2 Bft) 95,74 %
19.03.2021 05:44 2,1 C 1,7 C 0,6 C 92 % 1021,8 hPa 0,0 l/m 0 min 0 min 0 W/m 6,4 km/h (2 Bft) 95,74 %
19.03.2021 05:46 2,1 C 1,7 C 0,6 C 92 % 1021,8 hPa 0,0 l/m 0 min 0 min 0 W/m 6,4 km/h (2 Bft) 93,62 %
19.03.2021 05:48 2,1 C 1,1 C 0,6 C 93 % 1021,9 hPa 0,0 l/m 0 min 0 min 0 W/m 12,9 km/h (3 Bft) 93,62 %
19.03.2021 05:50 2,0 C 1,1 C 0,6 C 93 % 1021,9 hPa 0,0 l/m 0 min 0 min 0 W/m 9,7 km/h (2 Bft) 95,56 %
19.03.2021 05:52 2,0 C 1,1 C 0,6 C 93 % 1021,9 hPa 0,0 l/m 0 min 0 min 0 W/m 6,4 km/h (2 Bft) 95,74 %
19.03.2021 05:54 2,0 C 1,1 C 0,6 C 93 % 1021,9 hPa 0,0 l/m 0 min 0 min 0 W/m 3,2 km/h (1 Bft) 93,62 %
19.03.2021 05:56 2,0 C 1,1 C 0,6 C 93 % 1021,9 hPa 0,0 l/m 0 min 0 min 0 W/m 6,4 km/h (2 Bft) 95,74 %
19.03.2021 05:58 2,0 C 1,1 C 0,6 C 93 % 1022,0 hPa 0,0 l/m 0 min 0 min 0 W/m 6,4 km/h (2 Bft) 95,74 %
19.03.2021 06:00 1,9 C 1,1 C 0,6 C 92 % 1022,1 hPa 0,0 l/m 0 min 0 min 0 W/m 9,7 km/h (2 Bft) 91,49 %
19.03.2021 06:02 1,9 C 1,1 C 0,6 C 92 % 1022,1 hPa 0,0 l/m 0 min 0 min 0 W/m 6,4 km/h (2 Bft) 95,74 %
19.03.2021 06:04 1,8 C 1,1 C 0,0 C 92 % 1022,1 hPa 0,0 l/m 0 min 0 min 0 W/m 9,7 km/h (2 Bft) 93,62 %
19.03.2021 06:08 1,8 C 0,6 C 0,0 C 92 % 1022,1 hPa 0,0 l/m 0 min 0 min 0 W/m 9,7 km/h (2 Bft) 96,43 %
19.03.2021 06:10 1,8 C 0,6 C 0,0 C 93 % 1022,1 hPa 0,0 l/m 0 min 0 min 0 W/m 3,2 km/h (1 Bft) 91,49 %
19.03.2021 06:12 1,7 C 0,6 C 0,0 C 93 % 1022,2 hPa 0,0 l/m 0 min 0 min 0 W/m 6,4 km/h (2 Bft) 95,74 %
19.03.2021 06:14 1,6 C 0,6 C 0,0 C 93 % 1022,1 hPa 0,0 l/m 0 min 0 min 0 W/m 9,7 km/h (2 Bft) 95,74 %
19.03.2021 06:16 1,6 C 0,6 C 0,0 C 93 % 1022,1 hPa 0,0 l/m 0 min 0 min 0 W/m 9,7 km/h (2 Bft) 96,23 %
19.03.2021 06:18 1,6 C 0,6 C 0,0 C 93 % 1022,2 hPa 0,0 l/m 0 min 0 min 0 W/m 12,9 km/h (3 Bft) 95,83 %
19.03.2021 06:20 1,5 C 0,6 C 0,0 C 92 % 1022,2 hPa 0,0 l/m 0 min 0 min 0 W/m 12,9 km/h (3 Bft) 93,88 %
19.03.2021 06:22 1,5 C 0,6 C 0,0 C 92 % 1022,2 hPa 0,0 l/m 0 min 0 min 0 W/m 9,7 km/h (2 Bft) 95,83 %
19.03.2021 06:24 1,5 C 0,6 C 0,0 C 93 % 1022,3 hPa 0,0 l/m 0 min 0 min 0 W/m 9,7 km/h (2 Bft) 97,22 %
19.03.2021 06:26 1,4 C 0,6 C 0,0 C 93 % 1022,3 hPa 0,0 l/m 0 min 0 min 0 W/m 12,9 km/h (3 Bft) 94,83 %
19.03.2021 06:28 1,4 C 0,6 C 0,0 C 93 % 1022,3 hPa 0,0 l/m 0 min 0 min 0 W/m 9,7 km/h (2 Bft) 91,67 %
19.03.2021 06:30 1,4 C 0,6 C 0,0 C 93 % 1022,4 hPa 0,0 l/m 0 min 0 min 0 W/m 9,7 km/h (2 Bft) 95,65 %
19.03.2021 06:32 1,3 C 0,6 C 0,0 C 93 % 1022,4 hPa 0,0 l/m 0 min 0 min 0 W/m 9,7 km/h (2 Bft) 95,74 %
19.03.2021 06:34 1,3 C 0,6 C -0,5 C 93 % 1022,4 hPa 0,0 l/m 0 min 0 min 0 W/m 3,2 km/h (1 Bft) 95,74 %
19.03.2021 06:36 1,3 C 0,0 C -0,5 C 93 % 1022,5 hPa 0,0 l/m 0 min 0 min 0 W/m 6,4 km/h (2 Bft) 95,74 %
19.03.2021 06:38 1,3 C 0,0 C -0,5 C 93 % 1022,5 hPa 0,0 l/m 0 min 0 min 1 W/m 16,1 km/h (3 Bft) 89,83 %
19.03.2021 06:40 1,2 C 0,0 C -0,5 C 93 % 1022,4 hPa 0,0 l/m 0 min 0 min 5 W/m 3,2 km/h (1 Bft) 37,50 %
19.03.2021 06:42 1,2 C 0,0 C -0,5 C 93 % 1022,5 hPa 0,0 l/m 0 min 0 min 5 W/m 3,2 km/h (1 Bft) 97,87 %
19.03.2021 06:44 1,1 C 0,0 C -0,5 C 93 % 1022,4 hPa 0,0 l/m 0 min 0 min 5 W/m 12,9 km/h (3 Bft) 97,87 %
19.03.2021 06:46 1,1 C 0,0 C -0,5 C 93 % 1022,5 hPa 0,0 l/m 0 min 0 min 7 W/m 6,4 km/h (2 Bft) 97,87 %
19.03.2021 06:48 1,1 C 0,0 C -0,5 C 93 % 1022,4 hPa 0,0 l/m 0 min 0 min 7 W/m 3,2 km/h (1 Bft) 97,87 %
19.03.2021 06:50 1,0 C 0,0 C -0,5 C 93 % 1022,5 hPa 0,0 l/m 0 min 0 min 9 W/m 3,2 km/h (1 Bft) 97,87 %
19.03.2021 06:52 1,0 C 0,0 C -0,5 C 93 % 1022,5 hPa 0,0 l/m 0 min 0 min 10 W/m 3,2 km/h (1 Bft) 95,65 %
19.03.2021 06:54 1,0 C 0,0 C -0,5 C 93 % 1022,6 hPa 0,0 l/m 0 min 0 min 11 W/m 6,4 km/h (2 Bft) 93,62 %
19.03.2021 06:56 1,0 C 0,0 C -0,5 C 93 % 1022,6 hPa 0,0 l/m 0 min 0 min 12 W/m 6,4 km/h (2 Bft) 95,74 %
19.03.2021 06:58 0,9 C 0,0 C -0,5 C 93 % 1022,7 hPa 0,0 l/m 0 min 0 min 14 W/m 9,7 km/h (2 Bft) 95,74 %
19.03.2021 07:00 0,9 C 0,0 C -0,5 C 93 % 1022,7 hPa 0,0 l/m 0 min 0 min 14 W/m 6,4 km/h (2 Bft) 93,62 %
19.03.2021 07:02 0,9 C 0,0 C -0,5 C 93 % 1022,8 hPa 0,0 l/m 0 min 0 min 16 W/m 3,2 km/h (1 Bft) 97,96 %
19.03.2021 07:04 0,9 C 0,0 C -0,5 C 93 % 1022,7 hPa 0,0 l/m 0 min 0 min 16 W/m 6,4 km/h (2 Bft) 97,83 %
19.03.2021 07:06 0,9 C 0,0 C -0,5 C 93 % 1022,8 hPa 0,0 l/m 0 min 0 min 16 W/m 3,2 km/h (1 Bft) 97,87 %
19.03.2021 07:08 0,8 C 0,0 C -0,5 C 93 % 1022,8 hPa 0,0 l/m 0 min 0 min 18 W/m 9,7 km/h (2 Bft) 97,87 %
19.03.2021 07:10 0,8 C 0,0 C -0,5 C 93 % 1022,8 hPa 0,0 l/m 0 min 0 min 18 W/m 6,4 km/h (2 Bft) 97,87 %
19.03.2021 07:12 0,8 C 0,0 C -0,5 C 93 % 1022,9 hPa 0,0 l/m 0 min 0 min 19 W/m 3,2 km/h (1 Bft) 93,62 %
19.03.2021 07:14 0,8 C 0,0 C -0,5 C 93 % 1022,9 hPa 0,0 l/m 0 min 0 min 19 W/m 3,2 km/h (1 Bft) 97,87 %
19.03.2021 07:16 0,8 C 0,0 C -0,5 C 93 % 1022,9 hPa 0,0 l/m 0 min 0 min 21 W/m 3,2 km/h (1 Bft) 95,65 %
19.03.2021 07:18 0,8 C 0,0 C -0,5 C 93 % 1022,9 hPa 0,0 l/m 0 min 0 min 21 W/m 3,2 km/h (1 Bft) 93,62 %
19.03.2021 07:20 0,7 C 0,0 C -0,5 C 93 % 1023,0 hPa 0,0 l/m 0 min 0 min 21 W/m 3,2 km/h (1 Bft) 89,36 %
19.03.2021 07:22 0,7 C 0,0 C -0,5 C 93 % 1023,0 hPa 0,0 l/m 0 min 0 min 23 W/m 3,2 km/h (1 Bft) 97,87 %
19.03.2021 07:24 0,7 C 0,0 C -0,5 C 93 % 1023,0 hPa 0,0 l/m 0 min 0 min 23 W/m 6,4 km/h (2 Bft) 55,56 %
19.03.2021 07:26 0,6 C 0,0 C -0,5 C 93 % 1023,1 hPa 0,0 l/m 0 min 0 min 25 W/m 6,4 km/h (2 Bft) 95,74 %
19.03.2021 07:28 0,6 C 0,0 C -0,5 C 93 % 1023,1 hPa 0,0 l/m 0 min 0 min 25 W/m 6,4 km/h (2 Bft) 97,83 %
19.03.2021 07:30 0,6 C 0,0 C -0,5 C 94 % 1023,1 hPa 0,0 l/m 0 min 0 min 26 W/m 9,7 km/h (2 Bft) 97,87 %
19.03.2021 07:32 0,6 C 0,0 C -0,5 C 94 % 1023,1 hPa 0,0 l/m 0 min 0 min 26 W/m 9,7 km/h (2 Bft) 95,74 %
19.03.2021 07:34 0,6 C 0,0 C -0,5 C 94 % 1023,1 hPa 0,0 l/m 0 min 0 min 28 W/m 9,7 km/h (2 Bft) 97,87 %
19.03.2021 07:36 0,6 C 0,0 C -0,5 C 94 % 1023,2 hPa 0,0 l/m 0 min 0 min 28 W/m 6,4 km/h (2 Bft) 97,87 %
19.03.2021 07:38 0,6 C 0,6 C -0,5 C 94 % 1023,2 hPa 0,0 l/m 0 min 0 min 29 W/m 9,7 km/h (2 Bft) 97,83 %
19.03.2021 07:40 0,6 C 0,6 C -0,5 C 94 % 1023,2 hPa 0,0 l/m 0 min 0 min 30 W/m 6,4 km/h (2 Bft) 97,87 %
19.03.2021 07:42 0,6 C 0,6 C -0,5 C 94 % 1023,2 hPa 0,0 l/m 0 min 0 min 30 W/m 3,2 km/h (1 Bft) 95,74 %
19.03.2021 07:44 0,6 C 0,6 C -0,5 C 94 % 1023,3 hPa 0,0 l/m 0 min 0 min 32 W/m 12,9 km/h (3 Bft) 97,87 %
19.03.2021 07:46 0,6 C 0,6 C -0,5 C 94 % 1023,3 hPa 0,0 l/m 0 min 0 min 32 W/m 6,4 km/h (2 Bft) 95,74 %
19.03.2021 07:48 0,6 C 0,6 C -0,5 C 94 % 1023,2 hPa 0,0 l/m 0 min 0 min 33 W/m 9,7 km/h (2 Bft) 97,87 %
19.03.2021 07:50 0,6 C 0,6 C 0,0 C 94 % 1023,3 hPa 0,0 l/m 0 min 0 min 33 W/m 12,9 km/h (3 Bft) 97,87 %
19.03.2021 07:52 0,6 C 0,6 C 0,0 C 94 % 1023,3 hPa 0,0 l/m 0 min 0 min 34 W/m 6,4 km/h (2 Bft) 97,83 %
19.03.2021 07:54 0,7 C 0,6 C 0,0 C 94 % 1023,3 hPa 0,0 l/m 0 min 0 min 35 W/m 3,2 km/h (1 Bft) 97,87 %
19.03.2021 07:56 0,7 C 0,6 C 0,0 C 94 % 1023,3 hPa 0,0 l/m 0 min 0 min 35 W/m 6,4 km/h (2 Bft) 95,74 %
19.03.2021 07:58 0,7 C 0,6 C 0,0 C 94 % 1023,3 hPa 0,0 l/m 0 min 0 min 35 W/m 9,7 km/h (2 Bft) 98,00 %
19.03.2021 08:00 0,8 C 0,6 C 0,0 C 94 % 1023,3 hPa 0,0 l/m 0 min 0 min 36 W/m 9,7 km/h (2 Bft) 100,00 %
19.03.2021 08:02 0,8 C 0,6 C 0,0 C 94 % 1023,3 hPa 0,0 l/m 0 min 0 min 37 W/m 12,9 km/h (3 Bft) 100,00 %
19.03.2021 08:04 0,8 C 0,6 C 0,0 C 93 % 1023,3 hPa 0,0 l/m 0 min 0 min 37 W/m 12,9 km/h (3 Bft) 93,62 %
19.03.2021 08:06 0,8 C 0,6 C 0,0 C 93 % 1023,4 hPa 0,0 l/m 0 min 0 min 37 W/m 12,9 km/h (3 Bft) 100,00 %
19.03.2021 08:08 0,9 C 1,1 C 0,0 C 93 % 1023,4 hPa 0,0 l/m 0 min 0 min 39 W/m 6,4 km/h (2 Bft) 80,85 %
19.03.2021 08:10 0,9 C 1,1 C 0,0 C 94 % 1023,5 hPa 0,2 l/m 0 min 0 min 39 W/m 9,7 km/h (2 Bft) 80,85 %
19.03.2021 08:12 0,9 C 1,1 C 0,0 C 94 % 1023,5 hPa 0,0 l/m 0 min 0 min 39 W/m 9,7 km/h (2 Bft) 93,48 %
19.03.2021 08:14 0,9 C 1,1 C 0,0 C 93 % 1023,5 hPa 0,0 l/m 0 min 0 min 39 W/m 9,7 km/h (2 Bft) 91,49 %
19.03.2021 08:16 1,0 C 1,1 C 0,0 C 93 % 1023,5 hPa 0,0 l/m 0 min 0 min 40 W/m 9,7 km/h (2 Bft) 76,60 %
19.03.2021 08:18 1,0 C 1,1 C 0,0 C 93 % 1023,5 hPa 0,0 l/m 0 min 0 min 40 W/m 16,1 km/h (3 Bft) 82,98 %
19.03.2021 08:20 1,0 C 1,1 C 0,0 C 93 % 1023,6 hPa 0,0 l/m 0 min 0 min 42 W/m 6,4 km/h (2 Bft) 89,36 %
19.03.2021 08:22 1,1 C 1,1 C 0,6 C 93 % 1023,5 hPa 0,0 l/m 0 min 0 min 42 W/m 3,2 km/h (1 Bft) 95,74 %
19.03.2021 08:24 1,1 C 1,1 C 0,6 C 93 % 1023,6 hPa 0,0 l/m 0 min 0 min 42 W/m 12,9 km/h (3 Bft) 95,74 %
19.03.2021 08:26 1,1 C 1,1 C 0,6 C 93 % 1023,6 hPa 0,0 l/m 0 min 0 min 42 W/m 9,7 km/h (2 Bft) 89,13 %
19.03.2021 08:28 1,2 C 1,1 C 0,6 C 93 % 1023,6 hPa 0,0 l/m 0 min 0 min 44 W/m 16,1 km/h (3 Bft) 95,74 %
19.03.2021 08:30 1,3 C 1,7 C 0,6 C 93 % 1023,7 hPa 0,0 l/m 0 min 0 min 45 W/m 12,9 km/h (3 Bft) 95,74 %
19.03.2021 08:32 1,3 C 1,7 C 0,6 C 93 % 1023,7 hPa 0,0 l/m 0 min 0 min 46 W/m 19,3 km/h (3 Bft) 95,74 %
19.03.2021 08:34 1,3 C 1,7 C 0,6 C 93 % 1023,7 hPa 0,0 l/m 0 min 0 min 47 W/m 9,7 km/h (2 Bft) 93,62 %
19.03.2021 08:36 1,4 C 1,7 C 0,6 C 93 % 1023,7 hPa 0,0 l/m 0 min 0 min 47 W/m 9,7 km/h (2 Bft) 93,62 %
19.03.2021 08:38 1,5 C 1,7 C 0,6 C 93 % 1023,8 hPa 0,0 l/m 0 min 0 min 57 W/m 12,9 km/h (3 Bft) 91,30 %
19.03.2021 08:40 1,5 C 1,7 C 1,1 C 92 % 1023,8 hPa 0,0 l/m 0 min 0 min 148 W/m 6,4 km/h (2 Bft) 95,74 %
19.03.2021 08:42 1,5 C 1,7 C 1,1 C 92 % 1023,9 hPa 0,0 l/m 2 min 0 min 241 W/m 9,7 km/h (2 Bft) 97,87 %
19.03.2021 08:44 1,6 C 2,2 C 1,1 C 92 % 1023,9 hPa 0,0 l/m 2 min 0 min 295 W/m 9,7 km/h (2 Bft) 95,74 %
19.03.2021 08:46 1,6 C 2,2 C 1,1 C 92 % 1023,9 hPa 0,0 l/m 2 min 0 min 306 W/m 6,4 km/h (2 Bft) 93,62 %
19.03.2021 08:48 1,8 C 2,8 C 1,1 C 92 % 1024,0 hPa 0,0 l/m 2 min 0 min 310 W/m 16,1 km/h (3 Bft) 95,65 %
19.03.2021 08:50 1,9 C 3,9 C 1,1 C 92 % 1024,0 hPa 0,0 l/m 2 min 0 min 314 W/m 6,4 km/h (2 Bft) 95,74 %
19.03.2021 08:52 2,0 C 5,6 C 1,7 C 92 % 1024,0 hPa 0,0 l/m 2 min 0 min 323 W/m 19,3 km/h (3 Bft) 93,62 %
19.03.2021 08:54 2,1 C 5,6 C 1,7 C 92 % 1024,0 hPa 0,0 l/m 2 min 0 min 330 W/m 19,3 km/h (3 Bft) 92,68 %
19.03.2021 08:56 2,3 C 6,7 C 2,3 C 91 % 1024,0 hPa 0,0 l/m 2 min 0 min 335 W/m 16,1 km/h (3 Bft) 93,62 %
19.03.2021 08:58 2,4 C 7,8 C 3,4 C 91 % 1024,0 hPa 0,0 l/m 2 min 0 min 340 W/m 16,1 km/h (3 Bft) 95,74 %
19.03.2021 09:00 2,6 C 8,3 C 3,9 C 91 % 1024,0 hPa 0,0 l/m 2 min 0 min 346 W/m 12,9 km/h (3 Bft) 95,65 %
19.03.2021 09:02 2,9 C 8,9 C 5,0 C 90 % 1024,0 hPa 0,0 l/m 2 min 0 min 347 W/m 9,7 km/h (2 Bft) 100,00 %
19.03.2021 09:04 3,0 C 8,9 C 6,1 C 90 % 1024,1 hPa 0,0 l/m 2 min 0 min 352 W/m 12,9 km/h (3 Bft) 100,00 %
19.03.2021 09:06 3,2 C 8,9 C 6,1 C 89 % 1024,1 hPa 0,0 l/m 2 min 0 min 363 W/m 9,7 km/h (2 Bft) 97,87 %
19.03.2021 09:08 3,4 C 9,4 C 6,7 C 88 % 1024,1 hPa 0,0 l/m 2 min 0 min 367 W/m 9,7 km/h (2 Bft) 100,00 %
19.03.2021 09:10 3,6 C 9,4 C 6,7 C 88 % 1024,1 hPa 0,0 l/m 2 min 0 min 372 W/m 16,1 km/h (3 Bft) 97,87 %
19.03.2021 09:12 3,7 C 8,9 C 6,7 C 87 % 1024,2 hPa 0,0 l/m 2 min 0 min 378 W/m 16,1 km/h (3 Bft) 97,83 %
19.03.2021 09:14 3,8 C 8,3 C 6,1 C 86 % 1024,2 hPa 0,0 l/m 2 min 0 min 385 W/m 19,3 km/h (3 Bft) 100,00 %
19.03.2021 09:16 3,9 C 9,4 C 6,7 C 85 % 1024,2 hPa 0,0 l/m 2 min 0 min 389 W/m 9,7 km/h (2 Bft) 97,87 %
19.03.2021 09:18 4,0 C 9,4 C 6,1 C 85 % 1024,2 hPa 0,0 l/m 2 min 0 min 368 W/m 16,1 km/h (3 Bft) 97,87 %
19.03.2021 09:20 4,1 C 9,4 C 6,1 C 84 % 1024,2 hPa 0,0 l/m 2 min 0 min 347 W/m 16,1 km/h (3 Bft) 97,87 %
19.03.2021 09:22 4,2 C 9,4 C 6,7 C 84 % 1024,3 hPa 0,0 l/m 2 min 0 min 364 W/m 12,9 km/h (3 Bft) 95,74 %
19.03.2021 09:24 4,3 C 9,4 C 6,7 C 83 % 1024,2 hPa 0,0 l/m 2 min 0 min 308 W/m 12,9 km/h (3 Bft) 95,65 %
19.03.2021 09:26 4,3 C 8,9 C 6,1 C 83 % 1024,3 hPa 0,0 l/m 2 min 0 min 239 W/m 22,5 km/h (4 Bft) 97,87 %
19.03.2021 09:28 4,4 C 9,4 C 6,1 C 82 % 1024,2 hPa 0,0 l/m 2 min 0 min 291 W/m 9,7 km/h (2 Bft) 95,74 %
19.03.2021 09:30 4,5 C 10,6 C 6,7 C 82 % 1024,3 hPa 0,0 l/m 2 min 0 min 307 W/m 12,9 km/h (3 Bft) 97,87 %
19.03.2021 09:32 4,5 C 9,4 C 6,7 C 82 % 1024,3 hPa 0,0 l/m 2 min 0 min 257 W/m 16,1 km/h (3 Bft) 97,87 %
19.03.2021 09:34 4,6 C 10,0 C 6,1 C 81 % 1024,3 hPa 0,0 l/m 0 min 0 min 174 W/m 12,9 km/h (3 Bft) 97,87 %
19.03.2021 09:36 4,7 C 10,0 C 6,1 C 81 % 1024,4 hPa 0,0 l/m 2 min 0 min 222 W/m 16,1 km/h (3 Bft) 97,83 %
19.03.2021 09:38 4,8 C 10,0 C 5,6 C 81 % 1024,4 hPa 0,0 l/m 2 min 0 min 251 W/m 9,7 km/h (2 Bft) 97,87 %
19.03.2021 09:40 4,8 C 10,6 C 5,6 C 80 % 1024,4 hPa 0,0 l/m 2 min 0 min 333 W/m 9,7 km/h (2 Bft) 95,74 %
19.03.2021 09:42 4,9 C 10,6 C 5,6 C 80 % 1024,4 hPa 0,0 l/m 2 min 0 min 292 W/m 6,4 km/h (2 Bft) 95,74 %
19.03.2021 09:44 5,0 C 10,6 C 5,0 C 80 % 1024,5 hPa 0,0 l/m 2 min 0 min 251 W/m 9,7 km/h (2 Bft) 95,74 %
19.03.2021 09:46 5,0 C 9,4 C 5,6 C 80 % 1024,5 hPa 0,0 l/m 2 min 0 min 376 W/m 19,3 km/h (3 Bft) 97,87 %
19.03.2021 09:48 5,1 C 10,0 C 5,6 C 79 % 1024,5 hPa 0,0 l/m 2 min 0 min 285 W/m 9,7 km/h (2 Bft) 97,83 %
19.03.2021 09:50 5,1 C 9,4 C 5,6 C 79 % 1024,6 hPa 0,0 l/m 0 min 0 min 198 W/m 22,5 km/h (4 Bft) 97,87 %
19.03.2021 09:52 5,1 C 8,9 C 5,6 C 78 % 1024,6 hPa 0,0 l/m 2 min 0 min 350 W/m 19,3 km/h (3 Bft) 97,87 %
19.03.2021 09:54 5,2 C 9,4 C 5,0 C 78 % 1024,6 hPa 0,0 l/m 0 min 0 min 224 W/m 9,7 km/h (2 Bft) 97,87 %
19.03.2021 09:56 5,2 C 9,4 C 5,0 C 78 % 1024,6 hPa 0,0 l/m 2 min 0 min 251 W/m 16,1 km/h (3 Bft) 97,83 %
19.03.2021 09:58 5,3 C 8,3 C 5,0 C 78 % 1024,6 hPa 0,0 l/m 2 min 0 min 241 W/m 19,3 km/h (3 Bft) 97,87 %
19.03.2021 10:00 5,3 C 7,8 C 5,0 C 77 % 1024,7 hPa 0,0 l/m 2 min 0 min 270 W/m 12,9 km/h (3 Bft) 95,65 %
19.03.2021 10:02 5,3 C 7,8 C 5,0 C 77 % 1024,7 hPa 0,0 l/m 2 min 0 min 344 W/m 19,3 km/h (3 Bft) 97,92 %
19.03.2021 10:04 5,4 C 8,3 C 5,0 C 77 % 1024,8 hPa 0,0 l/m 2 min 0 min 346 W/m 6,4 km/h (2 Bft) 100,00 %
19.03.2021 10:06 5,5 C 7,8 C 5,0 C 77 % 1024,8 hPa 0,0 l/m 2 min 0 min 274 W/m 16,1 km/h (3 Bft) 100,00 %
19.03.2021 10:08 5,5 C 8,3 C 5,0 C 76 % 1024,8 hPa 0,0 l/m 2 min 0 min 375 W/m 16,1 km/h (3 Bft) 95,74 %
19.03.2021 10:10 5,5 C 8,9 C 5,0 C 76 % 1024,7 hPa 0,0 l/m 2 min 0 min 526 W/m 16,1 km/h (3 Bft) 97,87 %
19.03.2021 10:12 5,6 C 8,9 C 7,8 C 76 % 1024,8 hPa 0,0 l/m 2 min 0 min 456 W/m 16,1 km/h (3 Bft) 95,65 %
19.03.2021 10:14 5,7 C 9,4 C 8,4 C 76 % 1024,8 hPa 0,0 l/m 2 min 0 min 428 W/m 16,1 km/h (3 Bft) 97,87 %
19.03.2021 10:16 5,8 C 10,0 C 8,4 C 76 % 1024,8 hPa 0,0 l/m 2 min 0 min 540 W/m 12,9 km/h (3 Bft) 97,87 %
19.03.2021 10:18 5,9 C 10,0 C 8,9 C 76 % 1024,9 hPa 0,0 l/m 2 min 0 min 568 W/m 12,9 km/h (3 Bft) 97,87 %
19.03.2021 10:20 5,9 C 10,0 C 8,4 C 76 % 1024,8 hPa 0,0 l/m 2 min 0 min 555 W/m 25,7 km/h (4 Bft) 97,92 %
19.03.2021 10:22 6,0 C 9,4 C 8,4 C 76 % 1024,8 hPa 0,0 l/m 2 min 0 min 560 W/m 16,1 km/h (3 Bft) 95,65 %
19.03.2021 10:24 6,0 C 8,9 C 6,7 C 75 % 1024,9 hPa 0,0 l/m 2 min 0 min 556 W/m 19,3 km/h (3 Bft) 97,87 %
19.03.2021 10:26 6,0 C 8,3 C 6,1 C 74 % 1024,9 hPa 0,0 l/m 2 min 0 min 554 W/m 19,3 km/h (3 Bft) 76,60 %
19.03.2021 10:28 5,9 C 8,9 C 7,3 C 74 % 1024,9 hPa 0,0 l/m 2 min 0 min 554 W/m 9,7 km/h (2 Bft) 74,42 %
19.03.2021 10:30 5,9 C 8,9 C 6,7 C 75 % 1024,9 hPa 0,0 l/m 2 min 0 min 554 W/m 12,9 km/h (3 Bft) 97,87 %
19.03.2021 10:32 5,8 C 8,3 C 6,1 C 74 % 1025,0 hPa 0,0 l/m 0 min 0 min 151 W/m 19,3 km/h (3 Bft) 97,92 %
19.03.2021 10:34 5,8 C 8,3 C 6,7 C 74 % 1025,0 hPa 0,0 l/m 0 min 0 min 245 W/m 12,9 km/h (3 Bft) 97,83 %
19.03.2021 10:36 5,7 C 8,3 C 6,1 C 74 % 1025,0 hPa 0,0 l/m 2 min 0 min 376 W/m 16,1 km/h (3 Bft) 97,87 %
19.03.2021 10:38 5,7 C 7,8 C 6,1 C 74 % 1025,1 hPa 0,0 l/m 0 min 0 min 188 W/m 6,4 km/h (2 Bft) 97,87 %
19.03.2021 10:40 5,7 C 8,3 C 6,7 C 75 % 1025,1 hPa 0,0 l/m 0 min 0 min 184 W/m 9,7 km/h (2 Bft) 97,87 %
19.03.2021 10:42 5,7 C 7,8 C 5,6 C 75 % 1025,1 hPa 0,0 l/m 0 min 0 min 201 W/m 12,9 km/h (3 Bft) 93,62 %
19.03.2021 10:44 5,7 C 8,9 C 7,3 C 75 % 1025,1 hPa 0,0 l/m 2 min 0 min 468 W/m 12,9 km/h (3 Bft) 95,74 %
19.03.2021 10:46 5,8 C 8,9 C 7,3 C 73 % 1025,2 hPa 0,0 l/m 2 min 0 min 505 W/m 19,3 km/h (3 Bft) 97,83 %
19.03.2021 10:48 5,8 C 8,3 C 7,3 C 73 % 1025,2 hPa 0,0 l/m 0 min 0 min 132 W/m 22,5 km/h (4 Bft) 97,87 %
19.03.2021 10:50 5,8 C 8,9 C 8,4 C 72 % 1025,3 hPa 0,0 l/m 0 min 0 min 221 W/m 19,3 km/h (3 Bft) 95,74 %
19.03.2021 10:52 5,8 C 10,6 C 9,5 C 72 % 1025,3 hPa 0,0 l/m 2 min 0 min 651 W/m 12,9 km/h (3 Bft) 95,74 %
19.03.2021 10:54 6,0 C 11,1 C 10,6 C 73 % 1025,2 hPa 0,0 l/m 2 min 0 min 656 W/m 25,7 km/h (4 Bft) 95,74 %
19.03.2021 10:56 6,0 C 10,6 C 10,0 C 71 % 1025,2 hPa 0,0 l/m 2 min 0 min 668 W/m 41,8 km/h (6 Bft) 100,00 %
19.03.2021 10:58 6,0 C 9,4 C 8,4 C 71 % 1025,3 hPa 0,0 l/m 2 min 0 min 311 W/m 29,0 km/h (5 Bft) 100,00 %
19.03.2021 11:00 6,1 C 10,0 C 7,8 C 71 % 1025,3 hPa 0,0 l/m 2 min 0 min 449 W/m 9,7 km/h (2 Bft) 100,00 %
19.03.2021 11:02 6,1 C 9,4 C 7,8 C 71 % 1025,4 hPa 0,0 l/m 2 min 0 min 480 W/m 19,3 km/h (3 Bft) 100,00 %
19.03.2021 11:04 6,1 C 8,3 C 6,1 C 70 % 1025,4 hPa 0,0 l/m 0 min 0 min 209 W/m 16,1 km/h (3 Bft) 100,00 %
19.03.2021 11:06 6,0 C 7,8 C 4,5 C 71 % 1025,4 hPa 0,0 l/m 0 min 0 min 117 W/m 19,3 km/h (3 Bft) 100,00 %
19.03.2021 11:08 5,9 C 7,2 C 4,5 C 71 % 1025,4 hPa 0,0 l/m 0 min 0 min 127 W/m 12,9 km/h (3 Bft) 100,00 %
19.03.2021 11:10 5,8 C 7,2 C 4,5 C 71 % 1025,4 hPa 0,0 l/m 0 min 0 min 129 W/m 12,9 km/h (3 Bft) 100,00 %
19.03.2021 11:12 5,8 C 6,7 C 3,9 C 72 % 1025,4 hPa 0,0 l/m 0 min 0 min 134 W/m 19,3 km/h (3 Bft) 100,00 %
19.03.2021 11:14 5,7 C 6,1 C 3,9 C 71 % 1025,4 hPa 0,0 l/m 0 min 0 min 139 W/m 29,0 km/h (5 Bft) 100,00 %
19.03.2021 11:16 5,6 C 6,1 C 3,4 C 71 % 1025,4 hPa 0,0 l/m 0 min 0 min 135 W/m 12,9 km/h (3 Bft) 100,00 %
19.03.2021 11:18 5,5 C 6,1 C 3,4 C 71 % 1025,5 hPa 0,0 l/m 0 min 0 min 122 W/m 22,5 km/h (4 Bft) 100,00 %
19.03.2021 11:20 5,4 C 6,1 C 3,4 C 72 % 1025,5 hPa 0,0 l/m 0 min 0 min 121 W/m 9,7 km/h (2 Bft) 100,00 %
19.03.2021 11:22 5,4 C 6,1 C 3,4 C 72 % 1025,4 hPa 0,0 l/m 0 min 0 min 155 W/m 16,1 km/h (3 Bft) 100,00 %
19.03.2021 11:24 5,3 C 5,6 C 3,4 C 71 % 1025,4 hPa 0,0 l/m 0 min 0 min 147 W/m 25,7 km/h (4 Bft) 100,00 %
19.03.2021 11:26 5,3 C 6,1 C 3,4 C 71 % 1025,4 hPa 0,0 l/m 0 min 0 min 151 W/m 12,9 km/h (3 Bft) 100,00 %
19.03.2021 11:28 5,3 C 6,7 C 4,5 C 72 % 1025,5 hPa 0,0 l/m 0 min 0 min 155 W/m 19,3 km/h (3 Bft) 97,87 %
19.03.2021 11:30 5,3 C 7,8 C 5,6 C 72 % 1025,4 hPa 0,0 l/m 0 min 0 min 155 W/m 25,7 km/h (4 Bft) 97,87 %
19.03.2021 11:32 5,4 C 10,0 C 7,8 C 72 % 1025,4 hPa 0,0 l/m 0 min 0 min 155 W/m 25,7 km/h (4 Bft) 93,48 %
19.03.2021 11:34 5,7 C 12,2 C 10,0 C 72 % 1025,3 hPa 0,0 l/m 2 min 0 min 596 W/m 12,9 km/h (3 Bft) 97,87 %
19.03.2021 11:36 6,0 C 13,9 C 11,7 C 73 % 1025,3 hPa 0,0 l/m 2 min 0 min 698 W/m 12,9 km/h (3 Bft) 97,87 %
19.03.2021 11:38 6,4 C 15,0 C 12,3 C 72 % 1025,3 hPa 0,0 l/m 2 min 0 min 709 W/m 16,1 km/h (3 Bft) 97,87 %
19.03.2021 11:40 6,6 C 16,1 C 11,7 C 71 % 1025,3 hPa 0,0 l/m 2 min 0 min 729 W/m 16,1 km/h (3 Bft) 97,87 %
19.03.2021 11:42 6,9 C 16,1 C 13,4 C 70 % 1025,4 hPa 0,0 l/m 2 min 0 min 767 W/m 16,1 km/h (3 Bft) 95,74 %
19.03.2021 11:44 7,2 C 16,7 C 13,9 C 69 % 1025,4 hPa 0,0 l/m 2 min 0 min 806 W/m 16,1 km/h (3 Bft) 97,83 %
19.03.2021 11:46 7,5 C 16,1 C 13,4 C 68 % 1025,4 hPa 0,0 l/m 2 min 0 min 809 W/m 22,5 km/h (4 Bft) 97,87 %
19.03.2021 11:48 7,6 C 16,7 C 12,3 C 67 % 1025,3 hPa 0,0 l/m 2 min 0 min 826 W/m 22,5 km/h (4 Bft) 97,87 %
19.03.2021 11:50 7,9 C 16,7 C 12,8 C 67 % 1025,4 hPa 0,0 l/m 2 min 0 min 849 W/m 16,1 km/h (3 Bft) 93,62 %
19.03.2021 11:52 8,0 C 17,2 C 12,8 C 68 % 1025,4 hPa 0,0 l/m 2 min 0 min 847 W/m 12,9 km/h (3 Bft) 97,87 %
19.03.2021 11:54 8,1 C 17,2 C 12,8 C 67 % 1025,4 hPa 0,0 l/m 2 min 0 min 830 W/m 19,3 km/h (3 Bft) 95,74 %
19.03.2021 11:56 8,2 C 15,6 C 12,3 C 64 % 1025,4 hPa 0,0 l/m 2 min 0 min 815 W/m 16,1 km/h (3 Bft) 97,83 %
19.03.2021 11:58 8,2 C 13,9 C 10,0 C 65 % 1025,4 hPa 0,0 l/m 2 min 0 min 466 W/m 22,5 km/h (4 Bft) 97,73 %
19.03.2021 12:00 8,1 C 13,3 C 9,5 C 64 % 1025,5 hPa 0,0 l/m 2 min 0 min 513 W/m 22,5 km/h (4 Bft) 95,74 %
19.03.2021 12:02 8,2 C 13,9 C 11,1 C 65 % 1025,5 hPa 0,0 l/m 2 min 0 min 801 W/m 12,9 km/h (3 Bft) 95,74 %
19.03.2021 12:04 8,2 C 13,9 C 10,6 C 66 % 1025,5 hPa 0,0 l/m 2 min 0 min 792 W/m 9,7 km/h (2 Bft) 97,87 %
19.03.2021 12:08 8,1 C 10,6 C 8,4 C 63 % 1025,5 hPa 0,0 l/m 0 min 0 min 259 W/m 25,7 km/h (4 Bft) 96,81 %
19.03.2021 12:10 7,9 C 10,0 C 6,7 C 64 % 1025,5 hPa 0,0 l/m 2 min 0 min 551 W/m 16,1 km/h (3 Bft) 95,74 %
19.03.2021 12:12 7,8 C 9,4 C 6,1 C 65 % 1025,5 hPa 0,0 l/m 2 min 0 min 534 W/m 12,9 km/h (3 Bft) 97,87 %
19.03.2021 12:14 7,6 C 9,4 C 6,1 C 65 % 1025,4 hPa 0,0 l/m 2 min 0 min 334 W/m 22,5 km/h (4 Bft) 95,74 %
19.03.2021 12:16 7,6 C 9,4 C 6,7 C 65 % 1025,5 hPa 0,0 l/m 2 min 0 min 780 W/m 19,3 km/h (3 Bft) 95,74 %
19.03.2021 12:18 7,7 C 10,6 C 7,3 C 65 % 1025,5 hPa 0,0 l/m 2 min 0 min 789 W/m 19,3 km/h (3 Bft) 95,74 %
19.03.2021 12:20 7,7 C 11,1 C 7,3 C 65 % 1025,5 hPa 0,0 l/m 2 min 0 min 755 W/m 12,9 km/h (3 Bft) 95,74 %
19.03.2021 12:22 7,8 C 11,7 C 7,8 C 65 % 1025,5 hPa 0,0 l/m 2 min 0 min 752 W/m 12,9 km/h (3 Bft) 95,65 %
19.03.2021 12:24 7,9 C 11,7 C 7,8 C 65 % 1025,6 hPa 0,0 l/m 2 min 0 min 752 W/m 9,7 km/h (2 Bft) 95,74 %
19.03.2021 12:26 8,0 C 12,8 C 8,4 C 65 % 1025,6 hPa 0,0 l/m 2 min 0 min 749 W/m 12,9 km/h (3 Bft) 93,62 %
19.03.2021 12:28 8,0 C 13,9 C 8,4 C 64 % 1025,6 hPa 0,0 l/m 2 min 0 min 757 W/m 19,3 km/h (3 Bft) 95,74 %
19.03.2021 12:30 8,0 C 12,8 C 7,3 C 63 % 1025,5 hPa 0,0 l/m 2 min 0 min 758 W/m 19,3 km/h (3 Bft) 95,74 %
19.03.2021 12:32 8,0 C 12,8 C 7,8 C 62 % 1025,5 hPa 0,0 l/m 2 min 0 min 756 W/m 16,1 km/h (3 Bft) 97,87 %
19.03.2021 12:34 8,0 C 14,4 C 7,8 C 63 % 1025,5 hPa 0,0 l/m 2 min 0 min 710 W/m 12,9 km/h (3 Bft) 97,87 %
19.03.2021 12:36 8,1 C 13,9 C 7,3 C 62 % 1025,5 hPa 0,0 l/m 2 min 0 min 574 W/m 22,5 km/h (4 Bft) 95,74 %
19.03.2021 12:38 8,1 C 15,0 C 7,3 C 62 % 1025,5 hPa 0,0 l/m 2 min 0 min 412 W/m 22,5 km/h (4 Bft) 97,87 %
19.03.2021 12:40 8,2 C 13,9 C 7,3 C 60 % 1025,5 hPa 0,0 l/m 2 min 0 min 816 W/m 22,5 km/h (4 Bft) 97,87 %
19.03.2021 12:42 8,2 C 12,8 C 6,1 C 61 % 1025,6 hPa 0,0 l/m 2 min 0 min 667 W/m 12,9 km/h (3 Bft) 97,87 %
19.03.2021 12:44 8,1 C 11,7 C 5,0 C 60 % 1025,6 hPa 0,0 l/m 0 min 0 min 100 W/m 25,7 km/h (4 Bft) 97,83 %
19.03.2021 12:46 8,0 C 12,8 C 5,0 C 62 % 1025,6 hPa 0,0 l/m 2 min 0 min 416 W/m 22,5 km/h (4 Bft) 97,87 %
19.03.2021 12:48 8,0 C 14,4 C 5,6 C 63 % 1025,6 hPa 0,0 l/m 2 min 0 min 679 W/m 16,1 km/h (3 Bft) 95,74 %
19.03.2021 12:50 8,0 C 15,6 C 5,6 C 62 % 1025,6 hPa 0,0 l/m 2 min 0 min 736 W/m 19,3 km/h (3 Bft) 97,87 %
19.03.2021 12:52 8,1 C 15,0 C 5,6 C 62 % 1025,6 hPa 0,0 l/m 2 min 0 min 485 W/m 12,9 km/h (3 Bft) 97,87 %
19.03.2021 12:54 8,1 C 13,9 C 5,6 C 61 % 1025,5 hPa 0,0 l/m 0 min 0 min 137 W/m 19,3 km/h (3 Bft) 97,87 %
19.03.2021 12:56 8,1 C 14,4 C 5,6 C 61 % 1025,5 hPa 0,0 l/m 0 min 0 min 137 W/m 16,1 km/h (3 Bft) 97,83 %
19.03.2021 12:58 8,2 C 13,9 C 6,1 C 60 % 1025,5 hPa 0,0 l/m 0 min 0 min 161 W/m 19,3 km/h (3 Bft) 95,74 %
19.03.2021 13:00 8,3 C 15,0 C 6,1 C 60 % 1025,5 hPa 0,0 l/m 0 min 0 min 302 W/m 25,7 km/h (4 Bft) 97,87 %
19.03.2021 13:02 8,4 C 16,1 C 6,1 C 60 % 1025,5 hPa 0,0 l/m 2 min 0 min 775 W/m 16,1 km/h (3 Bft) 95,83 %
19.03.2021 13:04 8,5 C 16,7 C 6,1 C 59 % 1025,5 hPa 0,0 l/m 2 min 0 min 795 W/m 22,5 km/h (4 Bft) 97,87 %
19.03.2021 13:06 8,5 C 16,7 C 6,1 C 59 % 1025,5 hPa 0,0 l/m 2 min 0 min 802 W/m 16,1 km/h (3 Bft) 97,87 %
19.03.2021 13:08 8,6 C 17,2 C 6,7 C 59 % 1025,6 hPa 0,0 l/m 2 min 0 min 819 W/m 19,3 km/h (3 Bft) 97,83 %
19.03.2021 13:10 8,7 C 16,7 C 6,1 C 59 % 1025,5 hPa 0,0 l/m 2 min 0 min 746 W/m 16,1 km/h (3 Bft) 95,74 %
19.03.2021 13:12 8,7 C 15,0 C 6,1 C 59 % 1025,5 hPa 0,0 l/m 0 min 0 min 230 W/m 16,1 km/h (3 Bft) 97,87 %
19.03.2021 13:14 8,7 C 15,6 C 6,1 C 58 % 1025,4 hPa 0,0 l/m 0 min 0 min 223 W/m 19,3 km/h (3 Bft) 97,87 %
19.03.2021 13:16 8,7 C 14,4 C 6,1 C 57 % 1025,4 hPa 0,0 l/m 2 min 0 min 759 W/m 22,5 km/h (4 Bft) 95,74 %
19.03.2021 13:18 8,6 C 12,2 C 5,6 C 56 % 1025,4 hPa 0,0 l/m 2 min 0 min 597 W/m 29,0 km/h (5 Bft) 97,87 %
19.03.2021 13:20 8,5 C 12,8 C 5,6 C 56 % 1025,4 hPa 0,0 l/m 2 min 0 min 407 W/m 19,3 km/h (3 Bft) 100,00 %
19.03.2021 13:22 8,4 C 12,8 C 5,0 C 57 % 1025,4 hPa 0,0 l/m 2 min 0 min 697 W/m 25,7 km/h (4 Bft) 100,00 %
19.03.2021 13:24 8,3 C 13,3 C 5,0 C 59 % 1025,5 hPa 0,0 l/m 0 min 0 min 137 W/m 9,7 km/h (2 Bft) 100,00 %
19.03.2021 13:26 8,3 C 15,6 C 5,6 C 60 % 1025,5 hPa 0,0 l/m 2 min 0 min 693 W/m 19,3 km/h (3 Bft) 100,00 %
19.03.2021 13:28 8,5 C 17,8 C 6,1 C 60 % 1025,5 hPa 0,0 l/m 2 min 0 min 825 W/m 16,1 km/h (3 Bft) 97,87 %
19.03.2021 13:30 8,7 C 18,9 C 6,7 C 58 % 1025,5 hPa 0,0 l/m 2 min 0 min 851 W/m 22,5 km/h (4 Bft) 100,00 %
19.03.2021 13:32 8,9 C 20,0 C 6,7 C 58 % 1025,4 hPa 0,0 l/m 2 min 0 min 829 W/m 9,7 km/h (2 Bft) 97,92 %
19.03.2021 13:34 9,1 C 20,6 C 7,3 C 59 % 1025,4 hPa 0,0 l/m 2 min 0 min 757 W/m 12,9 km/h (3 Bft) 100,00 %
19.03.2021 13:36 9,4 C 20,0 C 7,3 C 58 % 1025,4 hPa 0,0 l/m 2 min 0 min 798 W/m 16,1 km/h (3 Bft) 97,87 %
19.03.2021 13:38 9,5 C 17,8 C 7,3 C 58 % 1025,4 hPa 0,0 l/m 2 min 0 min 564 W/m 19,3 km/h (3 Bft) 100,00 %
19.03.2021 13:40 9,5 C 16,7 C 6,7 C 57 % 1025,4 hPa 0,0 l/m 2 min 0 min 367 W/m 16,1 km/h (3 Bft) 100,00 %
19.03.2021 13:42 9,5 C 16,7 C 6,7 C 55 % 1025,4 hPa 0,0 l/m 2 min 0 min 505 W/m 19,3 km/h (3 Bft) 100,00 %
19.03.2021 13:44 9,6 C 17,8 C 6,7 C 56 % 1025,4 hPa 0,0 l/m 2 min 0 min 811 W/m 12,9 km/h (3 Bft) 100,00 %
19.03.2021 13:46 9,7 C 17,8 C 7,3 C 55 % 1025,5 hPa 0,0 l/m 2 min 0 min 819 W/m 16,1 km/h (3 Bft) 100,00 %
19.03.2021 13:48 9,7 C 15,6 C 6,7 C 55 % 1025,5 hPa 0,0 l/m 2 min 0 min 819 W/m 22,5 km/h (4 Bft) 100,00 %
19.03.2021 13:50 9,6 C 14,4 C 6,1 C 55 % 1025,4 hPa 0,0 l/m 0 min 0 min 257 W/m 16,1 km/h (3 Bft) 100,00 %
19.03.2021 13:52 9,5 C 13,9 C 6,1 C 56 % 1025,5 hPa 0,0 l/m 0 min 0 min 206 W/m 16,1 km/h (3 Bft) 100,00 %
19.03.2021 13:54 9,4 C 15,0 C 6,1 C 55 % 1025,5 hPa 0,0 l/m 2 min 0 min 647 W/m 19,3 km/h (3 Bft) 100,00 %
19.03.2021 13:56 9,3 C 16,1 C 6,7 C 55 % 1025,4 hPa 0,0 l/m 2 min 0 min 800 W/m 19,3 km/h (3 Bft) 100,00 %
19.03.2021 13:58 9,4 C 16,7 C 6,7 C 56 % 1025,4 hPa 0,0 l/m 2 min 0 min 599 W/m 16,1 km/h (3 Bft) 100,00 %
19.03.2021 14:00 9,4 C 16,1 C 6,7 C 55 % 1025,4 hPa 0,0 l/m 2 min 0 min 806 W/m 19,3 km/h (3 Bft) 100,00 %
19.03.2021 14:02 9,4 C 13,9 C 6,7 C 55 % 1025,4 hPa 0,0 l/m 2 min 0 min 487 W/m 19,3 km/h (3 Bft) 100,00 %
19.03.2021 14:04 9,3 C 12,2 C 6,1 C 55 % 1025,4 hPa 0,0 l/m 0 min 0 min 155 W/m 9,7 km/h (2 Bft) 100,00 %
19.03.2021 14:06 9,2 C 11,1 C 6,1 C 54 % 1025,5 hPa 0,0 l/m 0 min 0 min 147 W/m 22,5 km/h (4 Bft) 95,65 %
19.03.2021 14:08 9,0 C 10,0 C 6,1 C 54 % 1025,5 hPa 0,0 l/m 0 min 0 min 164 W/m 12,9 km/h (3 Bft) 100,00 %
19.03.2021 14:10 8,9 C 11,1 C 6,1 C 55 % 1025,4 hPa 0,0 l/m 0 min 0 min 241 W/m 22,5 km/h (4 Bft) 100,00 %
19.03.2021 14:12 8,9 C 13,3 C 6,1 C 55 % 1025,4 hPa 0,0 l/m 0 min 0 min 271 W/m 25,7 km/h (4 Bft) 100,00 %
19.03.2021 14:14 8,9 C 15,0 C 6,1 C 55 % 1025,4 hPa 0,0 l/m 2 min 0 min 363 W/m 25,7 km/h (4 Bft) 100,00 %
19.03.2021 14:16 9,0 C 16,1 C 6,1 C 54 % 1025,4 hPa 0,0 l/m 2 min 0 min 625 W/m 19,3 km/h (3 Bft) 100,00 %
19.03.2021 14:18 9,0 C 15,0 C 6,1 C 53 % 1025,3 hPa 0,0 l/m 2 min 0 min 714 W/m 19,3 km/h (3 Bft) 100,00 %
19.03.2021 14:20 9,0 C 15,0 C 6,1 C 54 % 1025,3 hPa 0,0 l/m 2 min 0 min 714 W/m 16,1 km/h (3 Bft) 97,87 %
19.03.2021 14:22 9,0 C 13,9 C 6,1 C 53 % 1025,4 hPa 0,0 l/m 2 min 0 min 587 W/m 19,3 km/h (3 Bft) 97,87 %
19.03.2021 14:24 9,0 C 12,2 C 6,1 C 55 % 1025,4 hPa 0,0 l/m 0 min 0 min 149 W/m 22,5 km/h (4 Bft) 100,00 %
19.03.2021 14:26 8,9 C 11,1 C 5,6 C 53 % 1025,4 hPa 0,0 l/m 0 min 0 min 155 W/m 12,9 km/h (3 Bft) 100,00 %
19.03.2021 14:28 8,9 C 13,9 C 5,6 C 55 % 1025,4 hPa 0,0 l/m 2 min 0 min 311 W/m 16,1 km/h (3 Bft) 100,00 %
19.03.2021 14:30 9,0 C 15,0 C 6,1 C 53 % 1025,3 hPa 0,0 l/m 2 min 0 min 603 W/m 16,1 km/h (3 Bft) 100,00 %
19.03.2021 14:32 9,1 C 16,1 C 6,7 C 54 % 1025,3 hPa 0,0 l/m 2 min 0 min 604 W/m 16,1 km/h (3 Bft) 97,87 %
19.03.2021 14:34 9,3 C 18,3 C 6,7 C 55 % 1025,3 hPa 0,0 l/m 2 min 0 min 764 W/m 12,9 km/h (3 Bft) 97,87 %
19.03.2021 14:36 9,4 C 17,8 C 6,7 C 54 % 1025,3 hPa 0,0 l/m 2 min 0 min 738 W/m 16,1 km/h (3 Bft) 97,87 %
19.03.2021 14:38 9,5 C 15,0 C 6,7 C 54 % 1025,3 hPa 0,0 l/m 2 min 0 min 395 W/m 12,9 km/h (3 Bft) 100,00 %
19.03.2021 14:40 9,5 C 12,8 C 6,1 C 54 % 1025,4 hPa 0,0 l/m 0 min 0 min 137 W/m 22,5 km/h (4 Bft) 100,00 %
19.03.2021 14:42 9,4 C 11,7 C 6,1 C 54 % 1025,4 hPa 0,0 l/m 0 min 0 min 125 W/m 12,9 km/h (3 Bft) 100,00 %
19.03.2021 14:44 9,3 C 10,6 C 5,6 C 54 % 1025,4 hPa 0,0 l/m 0 min 0 min 117 W/m 16,1 km/h (3 Bft) 97,87 %
19.03.2021 14:46 9,1 C 11,1 C 5,6 C 53 % 1025,4 hPa 0,0 l/m 0 min 0 min 136 W/m 16,1 km/h (3 Bft) 97,87 %
19.03.2021 14:48 9,0 C 13,9 C 5,6 C 54 % 1025,4 hPa 0,0 l/m 2 min 0 min 614 W/m 35,4 km/h (5 Bft) 100,00 %
19.03.2021 14:50 9,0 C 16,7 C 6,1 C 54 % 1025,4 hPa 0,0 l/m 2 min 0 min 710 W/m 22,5 km/h (4 Bft) 100,00 %
19.03.2021 14:52 9,2 C 17,2 C 6,7 C 54 % 1025,4 hPa 0,0 l/m 2 min 0 min 723 W/m 29,0 km/h (5 Bft) 97,83 %
19.03.2021 14:54 9,3 C 16,7 C 6,7 C 54 % 1025,3 hPa 0,0 l/m 2 min 0 min 725 W/m 16,1 km/h (3 Bft) 97,87 %
19.03.2021 14:56 9,5 C 17,8 C 6,7 C 54 % 1025,4 hPa 0,0 l/m 2 min 0 min 713 W/m 19,3 km/h (3 Bft) 100,00 %
19.03.2021 14:58 9,5 C 15,0 C 6,7 C 53 % 1025,4 hPa 0,0 l/m 2 min 0 min 696 W/m 22,5 km/h (4 Bft) 97,87 %
19.03.2021 15:00 9,5 C 12,8 C 6,7 C 53 % 1025,4 hPa 0,0 l/m 2 min 0 min 258 W/m 19,3 km/h (3 Bft) 93,62 %
19.03.2021 15:02 9,5 C 11,7 C 6,7 C 53 % 1025,3 hPa 0,0 l/m 0 min 0 min 198 W/m 12,9 km/h (3 Bft) 97,37 %
19.03.2021 15:04 9,4 C 12,8 C 6,1 C 54 % 1025,4 hPa 0,0 l/m 0 min 0 min 197 W/m 25,7 km/h (4 Bft) 93,62 %
19.03.2021 15:06 9,3 C 11,1 C 6,1 C 54 % 1025,4 hPa 0,0 l/m 0 min 0 min 170 W/m 32,2 km/h (5 Bft) 91,49 %
19.03.2021 15:08 9,1 C 10,0 C 6,1 C 53 % 1025,4 hPa 0,0 l/m 0 min 0 min 137 W/m 9,7 km/h (2 Bft) 97,83 %
19.03.2021 15:10 9,0 C 9,4 C 5,6 C 54 % 1025,4 hPa 0,0 l/m 0 min 0 min 151 W/m 12,9 km/h (3 Bft) 95,74 %
19.03.2021 15:12 8,8 C 9,4 C 5,6 C 54 % 1025,5 hPa 0,0 l/m 0 min 0 min 168 W/m 12,9 km/h (3 Bft) 95,74 %
19.03.2021 15:14 8,7 C 9,4 C 5,6 C 55 % 1025,5 hPa 0,0 l/m 0 min 0 min 188 W/m 19,3 km/h (3 Bft) 95,74 %
19.03.2021 15:16 8,6 C 8,9 C 5,6 C 54 % 1025,5 hPa 0,0 l/m 0 min 0 min 207 W/m 25,7 km/h (4 Bft) 95,74 %
19.03.2021 15:18 8,5 C 9,4 C 5,6 C 54 % 1025,6 hPa 0,0 l/m 2 min 0 min 267 W/m 25,7 km/h (4 Bft) 95,74 %
19.03.2021 15:20 8,5 C 11,7 C 5,6 C 55 % 1025,6 hPa 0,0 l/m 2 min 0 min 248 W/m 16,1 km/h (3 Bft) 95,65 %
19.03.2021 15:22 8,6 C 14,4 C 6,1 C 56 % 1025,6 hPa 0,0 l/m 2 min 0 min 494 W/m 9,7 km/h (2 Bft) 93,62 %
19.03.2021 15:24 8,8 C 15,6 C 6,7 C 56 % 1025,5 hPa 0,0 l/m 2 min 0 min 580 W/m 16,1 km/h (3 Bft) 94,44 %
19.03.2021 15:26 8,9 C 12,8 C 6,7 C 55 % 1025,5 hPa 0,0 l/m 2 min 0 min 323 W/m 19,3 km/h (3 Bft) 93,62 %
19.03.2021 15:28 8,9 C 11,7 C 6,7 C 55 % 1025,5 hPa 0,0 l/m 0 min 0 min 179 W/m 19,3 km/h (3 Bft) 89,13 %
19.03.2021 15:30 8,9 C 12,2 C 6,1 C 55 % 1025,5 hPa 0,0 l/m 0 min 0 min 179 W/m 16,1 km/h (3 Bft) 93,62 %
19.03.2021 15:32 9,0 C 13,9 C 6,7 C 55 % 1025,5 hPa 0,0 l/m 2 min 0 min 427 W/m 16,1 km/h (3 Bft) 91,49 %
19.03.2021 15:34 9,1 C 15,0 C 6,7 C 55 % 1025,6 hPa 0,0 l/m 2 min 0 min 560 W/m 25,7 km/h (4 Bft) 93,62 %
19.03.2021 15:36 9,2 C 16,1 C 6,7 C 55 % 1025,5 hPa 0,0 l/m 2 min 0 min 583 W/m 19,3 km/h (3 Bft) 89,36 %
19.03.2021 15:38 9,3 C 16,7 C 7,3 C 54 % 1025,5 hPa 0,0 l/m 2 min 0 min 599 W/m 38,6 km/h (5 Bft) 93,62 %
19.03.2021 15:40 9,4 C 15,0 C 7,3 C 54 % 1025,5 hPa 0,0 l/m 2 min 0 min 522 W/m 22,5 km/h (4 Bft) 95,65 %
19.03.2021 15:42 9,4 C 13,3 C 6,7 C 54 % 1025,5 hPa 0,0 l/m 2 min 0 min 307 W/m 16,1 km/h (3 Bft) 93,62 %
19.03.2021 15:44 9,3 C 11,7 C 6,7 C 54 % 1025,6 hPa 0,0 l/m 2 min 0 min 228 W/m 22,5 km/h (4 Bft) 93,62 %
19.03.2021 15:46 9,1 C 11,1 C 6,1 C 53 % 1025,5 hPa 0,0 l/m 0 min 0 min 202 W/m 16,1 km/h (3 Bft) 93,62 %
19.03.2021 15:48 9,0 C 10,6 C 6,1 C 52 % 1025,5 hPa 0,0 l/m 0 min 0 min 187 W/m 12,9 km/h (3 Bft) 93,62 %
19.03.2021 15:50 9,0 C 10,6 C 6,1 C 53 % 1025,5 hPa 0,0 l/m 0 min 0 min 188 W/m 12,9 km/h (3 Bft) 95,74 %
19.03.2021 15:52 8,8 C 10,0 C 5,6 C 53 % 1025,4 hPa 0,0 l/m 0 min 0 min 202 W/m 16,1 km/h (3 Bft) 93,48 %
19.03.2021 15:54 8,8 C 10,6 C 5,6 C 54 % 1025,6 hPa 0,0 l/m 2 min 0 min 252 W/m 22,5 km/h (4 Bft) 93,62 %
19.03.2021 15:56 8,8 C 10,0 C 5,6 C 54 % 1025,6 hPa 0,0 l/m 2 min 0 min 217 W/m 25,7 km/h (4 Bft) 95,74 %
19.03.2021 15:58 8,7 C 10,0 C 5,6 C 54 % 1025,6 hPa 0,0 l/m 2 min 0 min 219 W/m 19,3 km/h (3 Bft) 93,62 %
19.03.2021 16:00 8,6 C 9,4 C 5,6 C 53 % 1025,6 hPa 0,0 l/m 2 min 0 min 220 W/m 12,9 km/h (3 Bft) 95,74 %
19.03.2021 16:02 8,6 C 10,0 C 5,6 C 55 % 1025,5 hPa 0,0 l/m 2 min 0 min 218 W/m 16,1 km/h (3 Bft) 95,74 %
19.03.2021 16:04 8,5 C 9,4 C 5,6 C 54 % 1025,5 hPa 0,0 l/m 2 min 0 min 212 W/m 22,5 km/h (4 Bft) 93,48 %
19.03.2021 16:06 8,5 C 10,0 C 5,6 C 54 % 1025,5 hPa 0,0 l/m 2 min 0 min 195 W/m 9,7 km/h (2 Bft) 95,74 %
19.03.2021 16:08 8,5 C 11,7 C 5,6 C 54 % 1025,5 hPa 0,0 l/m 2 min 0 min 231 W/m 25,7 km/h (4 Bft) 93,62 %
19.03.2021 16:10 8,5 C 12,2 C 5,6 C 54 % 1025,5 hPa 0,0 l/m 2 min 0 min 229 W/m 9,7 km/h (2 Bft) 97,87 %
19.03.2021 16:12 8,6 C 11,1 C 5,6 C 54 % 1025,5 hPa 0,0 l/m 0 min 0 min 182 W/m 12,9 km/h (3 Bft) 93,62 %
19.03.2021 16:14 8,6 C 10,6 C 5,6 C 55 % 1025,5 hPa 0,0 l/m 0 min 0 min 154 W/m 12,9 km/h (3 Bft) 95,74 %
19.03.2021 16:16 8,6 C 10,6 C 5,6 C 55 % 1025,5 hPa 0,0 l/m 0 min 0 min 160 W/m 12,9 km/h (3 Bft) 97,83 %
19.03.2021 16:18 8,6 C 10,0 C 5,6 C 55 % 1025,5 hPa 0,0 l/m 0 min 0 min 166 W/m 19,3 km/h (3 Bft) 100,00 %
19.03.2021 16:20 8,6 C 10,0 C 5,6 C 55 % 1025,5 hPa 0,0 l/m 0 min 0 min 163 W/m 25,7 km/h (4 Bft) 98,00 %
19.03.2021 16:22 8,6 C 9,4 C 5,6 C 54 % 1025,5 hPa 0,0 l/m 0 min 0 min 171 W/m 25,7 km/h (4 Bft) 95,74 %
19.03.2021 16:24 8,5 C 9,4 C 5,6 C 55 % 1025,6 hPa 0,0 l/m 2 min 0 min 177 W/m 6,4 km/h (2 Bft) 100,00 %
19.03.2021 16:26 8,5 C 9,4 C 5,6 C 55 % 1025,5 hPa 0,0 l/m 2 min 0 min 187 W/m 22,5 km/h (4 Bft) 100,00 %
19.03.2021 16:28 8,5 C 9,4 C 5,6 C 54 % 1025,6 hPa 0,0 l/m 0 min 0 min 166 W/m 19,3 km/h (3 Bft) 100,00 %
19.03.2021 16:30 8,4 C 9,4 C 5,0 C 55 % 1025,5 hPa 0,0 l/m 0 min 0 min 156 W/m 16,1 km/h (3 Bft) 100,00 %
19.03.2021 16:32 8,4 C 9,4 C 5,0 C 55 % 1025,5 hPa 0,0 l/m 2 min 0 min 164 W/m 16,1 km/h (3 Bft) 100,00 %
19.03.2021 16:34 8,4 C 9,4 C 5,0 C 55 % 1025,5 hPa 0,0 l/m 2 min 0 min 168 W/m 9,7 km/h (2 Bft) 100,00 %
19.03.2021 16:36 8,3 C 9,4 C 5,0 C 56 % 1025,4 hPa 0,0 l/m 2 min 0 min 163 W/m 19,3 km/h (3 Bft) 100,00 %
19.03.2021 16:38 8,3 C 9,4 C 5,0 C 56 % 1025,5 hPa 0,0 l/m 0 min 0 min 147 W/m 22,5 km/h (4 Bft) 100,00 %
19.03.2021 16:40 8,3 C 8,9 C 5,0 C 56 % 1025,5 hPa 0,0 l/m 0 min 0 min 132 W/m 25,7 km/h (4 Bft) 100,00 %
19.03.2021 16:42 8,3 C 8,9 C 5,0 C 55 % 1025,5 hPa 0,0 l/m 0 min 0 min 131 W/m 19,3 km/h (3 Bft) 100,00 %
19.03.2021 16:44 8,2 C 8,9 C 5,0 C 56 % 1025,5 hPa 0,0 l/m 0 min 0 min 119 W/m 16,1 km/h (3 Bft) 97,87 %
19.03.2021 16:46 8,1 C 8,3 C 5,0 C 57 % 1025,5 hPa 0,0 l/m 0 min 0 min 111 W/m 16,1 km/h (3 Bft) 100,00 %
19.03.2021 16:48 8,1 C 8,3 C 5,0 C 57 % 1025,5 hPa 0,0 l/m 0 min 0 min 109 W/m 19,3 km/h (3 Bft) 100,00 %
19.03.2021 16:50 8,1 C 8,3 C 5,0 C 57 % 1025,5 hPa 0,0 l/m 0 min 0 min 106 W/m 16,1 km/h (3 Bft) 100,00 %
19.03.2021 16:52 8,0 C 8,3 C 5,0 C 57 % 1025,5 hPa 0,0 l/m 0 min 0 min 104 W/m 19,3 km/h (3 Bft) 97,87 %
19.03.2021 16:54 8,0 C 7,8 C 5,0 C 58 % 1025,5 hPa 0,0 l/m 0 min 0 min 93 W/m 12,9 km/h (3 Bft) 100,00 %
19.03.2021 16:56 8,0 C 7,8 C 5,0 C 59 % 1025,5 hPa 0,0 l/m 0 min 0 min 76 W/m 16,1 km/h (3 Bft) 100,00 %
19.03.2021 16:58 7,9 C 7,8 C 4,5 C 59 % 1025,5 hPa 0,0 l/m 0 min 0 min 66 W/m 25,7 km/h (4 Bft) 100,00 %
19.03.2021 17:00 7,9 C 7,8 C 4,5 C 59 % 1025,5 hPa 0,0 l/m 0 min 0 min 78 W/m 9,7 km/h (2 Bft) 100,00 %
19.03.2021 17:02 7,9 C 7,8 C 4,5 C 59 % 1025,6 hPa 0,0 l/m 0 min 0 min 93 W/m 16,1 km/h (3 Bft) 100,00 %
19.03.2021 17:04 7,8 C 7,8 C 4,5 C 59 % 1025,6 hPa 0,0 l/m 0 min 0 min 91 W/m 22,5 km/h (4 Bft) 100,00 %
19.03.2021 17:06 7,8 C 7,8 C 4,5 C 59 % 1025,6 hPa 0,0 l/m 0 min 0 min 85 W/m 16,1 km/h (3 Bft) 100,00 %
19.03.2021 17:08 7,8 C 7,8 C 4,5 C 59 % 1025,7 hPa 0,0 l/m 0 min 0 min 82 W/m 19,3 km/h (3 Bft) 100,00 %
19.03.2021 17:10 7,8 C 7,8 C 4,5 C 59 % 1025,6 hPa 0,0 l/m 0 min 0 min 78 W/m 25,7 km/h (4 Bft) 100,00 %
19.03.2021 17:12 7,7 C 7,8 C 4,5 C 59 % 1025,6 hPa 0,0 l/m 0 min 0 min 67 W/m 12,9 km/h (3 Bft) 100,00 %
19.03.2021 17:14 7,6 C 7,8 C 4,5 C 60 % 1025,6 hPa 0,0 l/m 0 min 0 min 94 W/m 16,1 km/h (3 Bft) 100,00 %
19.03.2021 17:16 7,6 C 7,8 C 4,5 C 60 % 1025,7 hPa 0,0 l/m 0 min 0 min 103 W/m 6,4 km/h (2 Bft) 97,83 %
19.03.2021 17:18 7,5 C 7,2 C 3,9 C 60 % 1025,7 hPa 0,0 l/m 0 min 0 min 88 W/m 22,5 km/h (4 Bft) 100,00 %
19.03.2021 17:20 7,5 C 7,2 C 3,9 C 60 % 1025,6 hPa 0,0 l/m 0 min 0 min 49 W/m 16,1 km/h (3 Bft) 100,00 %
19.03.2021 17:22 7,5 C 7,2 C 3,9 C 60 % 1025,6 hPa 0,0 l/m 2 min 0 min 121 W/m 32,2 km/h (5 Bft) 100,00 %
19.03.2021 17:24 7,4 C 7,8 C 3,9 C 60 % 1025,7 hPa 0,0 l/m 2 min 0 min 168 W/m 35,4 km/h (5 Bft) 100,00 %
19.03.2021 17:26 7,4 C 7,8 C 3,9 C 61 % 1025,7 hPa 0,0 l/m 0 min 0 min 82 W/m 25,7 km/h (4 Bft) 100,00 %
19.03.2021 17:28 7,3 C 8,9 C 3,9 C 61 % 1025,7 hPa 0,0 l/m 2 min 0 min 143 W/m 12,9 km/h (3 Bft) 100,00 %
19.03.2021 17:30 7,3 C 7,8 C 3,9 C 61 % 1025,7 hPa 0,0 l/m 0 min 0 min 56 W/m 9,7 km/h (2 Bft) 97,87 %
19.03.2021 17:32 7,3 C 7,8 C 3,9 C 62 % 1025,7 hPa 0,0 l/m 0 min 0 min 45 W/m 9,7 km/h (2 Bft) 97,92 %
19.03.2021 17:34 7,3 C 7,2 C 3,9 C 62 % 1025,7 hPa 0,0 l/m 0 min 0 min 42 W/m 16,1 km/h (3 Bft) 100,00 %
19.03.2021 17:36 7,3 C 7,8 C 3,9 C 61 % 1025,7 hPa 0,0 l/m 0 min 0 min 60 W/m 12,9 km/h (3 Bft) 100,00 %
19.03.2021 17:38 7,3 C 8,9 C 3,9 C 61 % 1025,7 hPa 0,0 l/m 2 min 0 min 101 W/m 16,1 km/h (3 Bft) 100,00 %
19.03.2021 17:40 7,3 C 9,4 C 3,9 C 62 % 1025,8 hPa 0,0 l/m 2 min 0 min 111 W/m 19,3 km/h (3 Bft) 97,87 %
19.03.2021 17:42 7,3 C 9,4 C 3,9 C 62 % 1025,8 hPa 0,0 l/m 2 min 0 min 104 W/m 16,1 km/h (3 Bft) 100,00 %
19.03.2021 17:44 7,3 C 9,4 C 3,9 C 62 % 1025,8 hPa 0,0 l/m 2 min 0 min 96 W/m 9,7 km/h (2 Bft) 97,87 %
19.03.2021 17:46 7,4 C 9,4 C 4,5 C 61 % 1025,8 hPa 0,0 l/m 2 min 0 min 90 W/m 12,9 km/h (3 Bft) 93,62 %
19.03.2021 17:48 7,5 C 8,9 C 3,9 C 61 % 1025,8 hPa 0,0 l/m 2 min 0 min 84 W/m 12,9 km/h (3 Bft) 97,87 %
19.03.2021 17:50 7,5 C 8,9 C 3,9 C 61 % 1025,9 hPa 0,0 l/m 2 min 0 min 78 W/m 22,5 km/h (4 Bft) 97,83 %
19.03.2021 17:52 7,5 C 8,3 C 3,9 C 60 % 1025,9 hPa 0,0 l/m 2 min 0 min 71 W/m 12,9 km/h (3 Bft) 98,00 %
19.03.2021 17:54 7,5 C 7,8 C 3,9 C 60 % 1025,9 hPa 0,0 l/m 2 min 0 min 67 W/m 9,7 km/h (2 Bft) 97,87 %
19.03.2021 17:56 7,5 C 7,8 C 3,9 C 61 % 1025,9 hPa 0,0 l/m 2 min 0 min 69 W/m 22,5 km/h (4 Bft) 95,74 %
19.03.2021 17:58 7,5 C 7,2 C 3,9 C 60 % 1025,9 hPa 0,0 l/m 2 min 0 min 60 W/m 25,7 km/h (4 Bft) 95,74 %
19.03.2021 18:00 7,5 C 7,2 C 3,9 C 60 % 1025,9 hPa 0,0 l/m 0 min 0 min 50 W/m 16,1 km/h (3 Bft) 97,83 %
19.03.2021 18:02 7,4 C 7,2 C 3,9 C 60 % 1025,9 hPa 0,0 l/m 0 min 0 min 45 W/m 19,3 km/h (3 Bft) 95,74 %
19.03.2021 18:04 7,4 C 6,7 C 3,4 C 61 % 1025,9 hPa 0,0 l/m 0 min 0 min 42 W/m 16,1 km/h (3 Bft) 97,87 %
19.03.2021 18:08 7,3 C 6,7 C 3,4 C 61 % 1025,9 hPa 0,0 l/m 0 min 0 min 24 W/m 19,3 km/h (3 Bft) 97,65 %
19.03.2021 18:10 7,2 C 6,7 C 3,4 C 61 % 1025,9 hPa 0,0 l/m 0 min 0 min 21 W/m 12,9 km/h (3 Bft) 97,87 %
19.03.2021 18:12 7,1 C 6,1 C 3,4 C 61 % 1026,0 hPa 0,0 l/m 0 min 0 min 20 W/m 22,5 km/h (4 Bft) 97,87 %
19.03.2021 18:14 7,1 C 6,1 C 3,4 C 61 % 1026,0 hPa 0,0 l/m 0 min 0 min 19 W/m 16,1 km/h (3 Bft) 97,87 %
19.03.2021 18:16 7,0 C 6,1 C 3,4 C 61 % 1026,0 hPa 0,0 l/m 0 min 0 min 18 W/m 16,1 km/h (3 Bft) 95,65 %
19.03.2021 18:18 7,0 C 6,1 C 3,4 C 62 % 1026,0 hPa 0,0 l/m 0 min 0 min 16 W/m 12,9 km/h (3 Bft) 95,74 %
19.03.2021 18:20 6,9 C 6,1 C 3,4 C 62 % 1026,0 hPa 0,0 l/m 0 min 0 min 16 W/m 12,9 km/h (3 Bft) 93,62 %
19.03.2021 18:22 6,8 C 5,6 C 3,4 C 62 % 1026,1 hPa 0,0 l/m 0 min 0 min 15 W/m 22,5 km/h (4 Bft) 93,62 %
19.03.2021 18:24 6,8 C 5,6 C 3,4 C 62 % 1026,0 hPa 0,0 l/m 0 min 0 min 14 W/m 19,3 km/h (3 Bft) 95,74 %
19.03.2021 18:26 6,7 C 5,6 C 3,4 C 62 % 1026,1 hPa 0,0 l/m 0 min 0 min 13 W/m 22,5 km/h (4 Bft) 97,83 %
19.03.2021 18:28 6,6 C 5,6 C 2,8 C 63 % 1026,1 hPa 0,0 l/m 0 min 0 min 12 W/m 16,1 km/h (3 Bft) 95,74 %
19.03.2021 18:30 6,6 C 5,6 C 2,8 C 63 % 1026,1 hPa 0,0 l/m 0 min 0 min 12 W/m 16,1 km/h (3 Bft) 93,62 %
19.03.2021 18:32 6,5 C 5,6 C 2,8 C 63 % 1026,1 hPa 0,0 l/m 0 min 0 min 11 W/m 16,1 km/h (3 Bft) 93,62 %
19.03.2021 18:34 6,5 C 5,6 C 2,8 C 63 % 1026,1 hPa 0,0 l/m 0 min 0 min 12 W/m 6,4 km/h (2 Bft) 95,74 %
19.03.2021 18:36 6,5 C 5,6 C 2,8 C 64 % 1026,1 hPa 0,0 l/m 0 min 0 min 12 W/m 3,2 km/h (1 Bft) 95,74 %
19.03.2021 18:38 6,4 C 5,6 C 2,8 C 64 % 1026,1 hPa 0,0 l/m 0 min 0 min 10 W/m 16,1 km/h (3 Bft) 97,83 %
19.03.2021 18:40 6,4 C 5,6 C 2,8 C 64 % 1026,2 hPa 0,0 l/m 0 min 0 min 6 W/m 12,9 km/h (3 Bft) 93,62 %
19.03.2021 18:42 6,4 C 5,6 C 2,8 C 65 % 1026,2 hPa 0,0 l/m 0 min 0 min 3 W/m 9,7 km/h (2 Bft) 95,74 %
19.03.2021 18:44 6,4 C 5,6 C 2,8 C 65 % 1026,2 hPa 0,0 l/m 0 min 0 min 0 W/m 9,7 km/h (2 Bft) 82,98 %
19.03.2021 18:46 6,4 C 5,6 C 2,8 C 65 % 1026,2 hPa 0,0 l/m 0 min 0 min 0 W/m 9,7 km/h (2 Bft) 65,00 %
19.03.2021 18:48 6,4 C 5,6 C 2,8 C 65 % 1026,2 hPa 0,0 l/m 0 min 0 min 0 W/m 12,9 km/h (3 Bft) 93,62 %
19.03.2021 18:50 6,4 C 5,6 C 2,8 C 66 % 1026,3 hPa 0,0 l/m 0 min 0 min 0 W/m 9,7 km/h (2 Bft) 93,48 %
19.03.2021 18:52 6,4 C 5,6 C 3,4 C 66 % 1026,3 hPa 0,0 l/m 0 min 0 min 0 W/m 9,7 km/h (2 Bft) 95,74 %
19.03.2021 18:54 6,4 C 5,6 C 2,8 C 66 % 1026,3 hPa 0,0 l/m 0 min 0 min 0 W/m 3,2 km/h (1 Bft) 95,74 %
19.03.2021 18:56 6,4 C 5,6 C 2,8 C 66 % 1026,3 hPa 0,0 l/m 0 min 0 min 0 W/m 12,9 km/h (3 Bft) 95,74 %
19.03.2021 18:58 6,4 C 5,6 C 3,4 C 66 % 1026,3 hPa 0,0 l/m 0 min 0 min 0 W/m 9,7 km/h (2 Bft) 95,74 %
19.03.2021 19:00 6,4 C 5,6 C 3,4 C 67 % 1026,3 hPa 0,0 l/m 0 min 0 min 0 W/m 12,9 km/h (3 Bft) 95,74 %
19.03.2021 19:02 6,4 C 5,6 C 3,4 C 66 % 1026,3 hPa 0,0 l/m 0 min 0 min 0 W/m 12,9 km/h (3 Bft) 93,48 %
19.03.2021 19:04 6,4 C 5,6 C 3,4 C 66 % 1026,3 hPa 0,0 l/m 0 min 0 min 0 W/m 9,7 km/h (2 Bft) 95,74 %
19.03.2021 19:06 6,4 C 5,6 C 2,8 C 67 % 1026,3 hPa 0,0 l/m 0 min 0 min 0 W/m 9,7 km/h (2 Bft) 93,62 %
19.03.2021 19:08 6,4 C 5,6 C 2,8 C 67 % 1026,3 hPa 0,0 l/m 0 min 0 min 0 W/m 9,7 km/h (2 Bft) 95,65 %
19.03.2021 19:10 6,4 C 5,6 C 2,8 C 67 % 1026,3 hPa 0,0 l/m 0 min 0 min 0 W/m 12,9 km/h (3 Bft) 95,74 %
19.03.2021 19:12 6,4 C 5,6 C 3,4 C 67 % 1026,3 hPa 0,0 l/m 0 min 0 min 0 W/m 16,1 km/h (3 Bft) 95,74 %
19.03.2021 19:14 6,4 C 5,6 C 3,4 C 67 % 1026,3 hPa 0,0 l/m 0 min 0 min 0 W/m 9,7 km/h (2 Bft) 93,48 %
19.03.2021 19:16 6,4 C 5,6 C 2,8 C 67 % 1026,4 hPa 0,0 l/m 0 min 0 min 0 W/m 19,3 km/h (3 Bft) 95,74 %
19.03.2021 19:18 6,4 C 5,6 C 2,8 C 68 % 1026,4 hPa 0,0 l/m 0 min 0 min 0 W/m 6,4 km/h (2 Bft) 97,87 %
19.03.2021 19:20 6,4 C 5,6 C 2,8 C 68 % 1026,5 hPa 0,0 l/m 0 min 0 min 0 W/m 19,3 km/h (3 Bft) 95,74 %
19.03.2021 19:22 6,4 C 5,6 C 2,8 C 68 % 1026,5 hPa 0,0 l/m 0 min 0 min 0 W/m 16,1 km/h (3 Bft) 97,87 %
19.03.2021 19:24 6,4 C 5,6 C 2,8 C 68 % 1026,4 hPa 0,0 l/m 0 min 0 min 0 W/m 12,9 km/h (3 Bft) 97,87 %
19.03.2021 19:26 6,3 C 5,6 C 2,8 C 68 % 1026,5 hPa 0,0 l/m 0 min 0 min 0 W/m 16,1 km/h (3 Bft) 97,83 %
19.03.2021 19:28 6,3 C 5,6 C 2,8 C 68 % 1026,5 hPa 0,0 l/m 0 min 0 min 0 W/m 16,1 km/h (3 Bft) 97,87 %
19.03.2021 19:30 6,3 C 5,6 C 2,8 C 69 % 1026,5 hPa 0,0 l/m 0 min 0 min 0 W/m 12,9 km/h (3 Bft) 95,74 %
19.03.2021 19:32 6,3 C 5,6 C 2,8 C 69 % 1026,6 hPa 0,0 l/m 0 min 0 min 0 W/m 22,5 km/h (4 Bft) 95,83 %
19.03.2021 19:34 6,3 C 5,6 C 2,8 C 69 % 1026,6 hPa 0,0 l/m 0 min 0 min 0 W/m 16,1 km/h (3 Bft) 97,87 %
19.03.2021 19:36 6,3 C 5,6 C 2,8 C 69 % 1026,6 hPa 0,0 l/m 0 min 0 min 0 W/m 12,9 km/h (3 Bft) 97,87 %
19.03.2021 19:38 6,2 C 5,6 C 2,8 C 69 % 1026,6 hPa 0,0 l/m 0 min 0 min 0 W/m 9,7 km/h (2 Bft) 97,83 %
19.03.2021 19:40 6,2 C 5,6 C 2,8 C 69 % 1026,7 hPa 0,0 l/m 0 min 0 min 0 W/m 3,2 km/h (1 Bft) 100,00 %
19.03.2021 19:42 6,2 C 5,6 C 2,8 C 69 % 1026,7 hPa 0,0 l/m 0 min 0 min 0 W/m 9,7 km/h (2 Bft) 100,00 %
19.03.2021 19:44 6,2 C 5,6 C 2,8 C 69 % 1026,7 hPa 0,0 l/m 0 min 0 min 0 W/m 9,7 km/h (2 Bft) 100,00 %
19.03.2021 19:46 6,2 C 5,6 C 2,8 C 70 % 1026,8 hPa 0,0 l/m 0 min 0 min 0 W/m 6,4 km/h (2 Bft) 100,00 %
19.03.2021 19:48 6,1 C 5,0 C 2,8 C 70 % 1026,8 hPa 0,0 l/m 0 min 0 min 0 W/m 6,4 km/h (2 Bft) 95,74 %
19.03.2021 19:50 6,1 C 5,0 C 2,8 C 70 % 1026,8 hPa 0,0 l/m 0 min 0 min 0 W/m 6,4 km/h (2 Bft) 97,83 %
19.03.2021 19:52 6,1 C 5,0 C 2,8 C 71 % 1026,8 hPa 0,0 l/m 0 min 0 min 0 W/m 16,1 km/h (3 Bft) 100,00 %
19.03.2021 19:54 6,1 C 5,0 C 2,8 C 71 % 1026,8 hPa 0,0 l/m 0 min 0 min 0 W/m 6,4 km/h (2 Bft) 100,00 %
19.03.2021 19:56 6,1 C 5,0 C 2,8 C 71 % 1026,8 hPa 0,0 l/m 0 min 0 min 0 W/m 6,4 km/h (2 Bft) 97,87 %
19.03.2021 19:58 6,1 C 5,0 C 2,8 C 71 % 1026,8 hPa 0,0 l/m 0 min 0 min 0 W/m 3,2 km/h (1 Bft) 95,74 %
19.03.2021 20:00 6,1 C 5,6 C 2,8 C 71 % 1026,9 hPa 0,0 l/m 0 min 0 min 0 W/m 12,9 km/h (3 Bft) 95,65 %
19.03.2021 20:02 6,1 C 5,6 C 2,8 C 71 % 1026,9 hPa 0,0 l/m 0 min 0 min 0 W/m 3,2 km/h (1 Bft) 95,74 %
19.03.2021 20:04 6,1 C 5,0 C 2,8 C 71 % 1026,9 hPa 0,0 l/m 0 min 0 min 0 W/m 6,4 km/h (2 Bft) 97,87 %
19.03.2021 20:06 6,0 C 5,6 C 2,8 C 71 % 1026,9 hPa 0,0 l/m 0 min 0 min 0 W/m 6,4 km/h (2 Bft) 93,62 %
19.03.2021 20:08 6,0 C 5,6 C 2,8 C 72 % 1026,9 hPa 0,0 l/m 0 min 0 min 0 W/m 9,7 km/h (2 Bft) 97,87 %
19.03.2021 20:10 6,0 C 5,6 C 2,8 C 72 % 1026,9 hPa 0,0 l/m 0 min 0 min 0 W/m 6,4 km/h (2 Bft) 97,83 %
19.03.2021 20:12 6,0 C 5,0 C 2,8 C 72 % 1026,9 hPa 0,0 l/m 0 min 0 min 0 W/m 9,7 km/h (2 Bft) 95,65 %
19.03.2021 20:14 6,0 C 5,6 C 2,8 C 72 % 1026,9 hPa 0,0 l/m 0 min 0 min 0 W/m 9,7 km/h (2 Bft) 97,92 %
19.03.2021 20:16 6,0 C 5,0 C 2,8 C 72 % 1026,9 hPa 0,0 l/m 0 min 0 min 0 W/m 6,4 km/h (2 Bft) 97,87 %
19.03.2021 20:18 6,0 C 5,0 C 2,8 C 72 % 1026,9 hPa 0,0 l/m 0 min 0 min 0 W/m 9,7 km/h (2 Bft) 97,87 %
19.03.2021 20:20 6,0 C 5,0 C 2,8 C 72 % 1026,9 hPa 0,0 l/m 0 min 0 min 0 W/m 16,1 km/h (3 Bft) 96,36 %
19.03.2021 20:22 6,0 C 5,0 C 2,8 C 72 % 1026,9 hPa 0,0 l/m 0 min 0 min 0 W/m 6,4 km/h (2 Bft) 97,83 %
19.03.2021 20:24 6,0 C 5,0 C 2,8 C 72 % 1026,9 hPa 0,0 l/m 0 min 0 min 0 W/m 6,4 km/h (2 Bft) 97,87 %
19.03.2021 20:25 5,9 C 5,0 C 2,8 C 73 % 1027,0 hPa 0,0 l/m 0 min 0 min 0 W/m 9,7 km/h (2 Bft) 97,87 %
19.03.2021 20:28 5,9 C 5,0 C 2,3 C 73 % 1027,0 hPa 0,0 l/m 0 min 0 min 0 W/m 6,4 km/h (2 Bft) 97,87 %
19.03.2021 20:30 5,9 C 5,0 C 2,3 C 73 % 1027,0 hPa 0,0 l/m 0 min 0 min 0 W/m 9,7 km/h (2 Bft) 97,87 %
19.03.2021 20:32 5,9 C 5,0 C 2,3 C 73 % 1027,0 hPa 0,0 l/m 0 min 0 min 0 W/m 3,2 km/h (1 Bft) 95,74 %
19.03.2021 20:34 5,9 C 5,0 C 2,3 C 73 % 1027,0 hPa 0,0 l/m 0 min 0 min 0 W/m 6,4 km/h (2 Bft) 100,00 %
19.03.2021 20:36 5,9 C 5,0 C 2,3 C 73 % 1027,0 hPa 0,0 l/m 0 min 0 min 0 W/m 9,7 km/h (2 Bft) 100,00 %
19.03.2021 20:38 5,9 C 5,0 C 2,3 C 73 % 1027,0 hPa 0,0 l/m 0 min 0 min 0 W/m 6,4 km/h (2 Bft) 100,00 %
19.03.2021 20:40 5,8 C 5,0 C 2,3 C 73 % 1027,0 hPa 0,0 l/m 0 min 0 min 0 W/m 3,2 km/h (1 Bft) 100,00 %
19.03.2021 20:42 5,8 C 4,4 C 2,3 C 74 % 1026,9 hPa 0,0 l/m 0 min 0 min 0 W/m 12,9 km/h (3 Bft) 100,00 %
19.03.2021 20:44 5,8 C 4,4 C 2,3 C 73 % 1027,0 hPa 0,0 l/m 0 min 0 min 0 W/m 9,7 km/h (2 Bft) 100,00 %
19.03.2021 20:46 5,8 C 4,4 C 2,3 C 73 % 1027,0 hPa 0,0 l/m 0 min 0 min 0 W/m 3,2 km/h (1 Bft) 97,83 %
19.03.2021 20:48 5,7 C 4,4 C 1,7 C 73 % 1026,9 hPa 0,0 l/m 0 min 0 min 0 W/m 0,0 km/h (0 Bft) 100,00 %
19.03.2021 20:50 5,6 C 4,4 C 1,7 C 74 % 1026,9 hPa 0,0 l/m 0 min 0 min 0 W/m 3,2 km/h (1 Bft) 100,00 %
19.03.2021 20:52 5,6 C 4,4 C 1,7 C 74 % 1026,9 hPa 0,0 l/m 0 min 0 min 0 W/m 6,4 km/h (2 Bft) 100,00 %
19.03.2021 20:54 5,6 C 4,4 C 1,7 C 74 % 1027,0 hPa 0,0 l/m 0 min 0 min 0 W/m 3,2 km/h (1 Bft) 100,00 %
19.03.2021 20:56 5,6 C 4,4 C 1,7 C 74 % 1026,9 hPa 0,0 l/m 0 min 0 min 0 W/m 6,4 km/h (2 Bft) 100,00 %
19.03.2021 20:58 5,5 C 4,4 C 1,7 C 74 % 1026,9 hPa 0,0 l/m 0 min 0 min 0 W/m 6,4 km/h (2 Bft) 100,00 %
19.03.2021 21:00 5,5 C 4,4 C 1,7 C 74 % 1026,9 hPa 0,0 l/m 0 min 0 min 0 W/m 3,2 km/h (1 Bft) 100,00 %
19.03.2021 21:02 5,5 C 4,4 C 1,7 C 75 % 1026,9 hPa 0,0 l/m 0 min 0 min 0 W/m 3,2 km/h (1 Bft) 100,00 %
19.03.2021 21:04 5,5 C 4,4 C 1,7 C 75 % 1026,9 hPa 0,0 l/m 0 min 0 min 0 W/m 3,2 km/h (1 Bft) 100,00 %
19.03.2021 21:06 5,4 C 4,4 C 1,7 C 75 % 1026,9 hPa 0,0 l/m 0 min 0 min 0 W/m 3,2 km/h (1 Bft) 100,00 %
19.03.2021 21:08 5,4 C 4,4 C 1,7 C 75 % 1026,9 hPa 0,0 l/m 0 min 0 min 0 W/m 3,2 km/h (1 Bft) 100,00 %
19.03.2021 21:10 5,4 C 4,4 C 1,7 C 75 % 1026,9 hPa 0,0 l/m 0 min 0 min 0 W/m 6,4 km/h (2 Bft) 100,00 %
19.03.2021 21:12 5,4 C 4,4 C 1,7 C 75 % 1027,0 hPa 0,0 l/m 0 min 0 min 0 W/m 3,2 km/h (1 Bft) 100,00 %
19.03.2021 21:14 5,4 C 4,4 C 1,7 C 75 % 1027,0 hPa 0,0 l/m 0 min 0 min 0 W/m 3,2 km/h (1 Bft) 100,00 %
19.03.2021 21:16 5,4 C 4,4 C 2,3 C 75 % 1027,0 hPa 0,0 l/m 0 min 0 min 0 W/m 3,2 km/h (1 Bft) 100,00 %
19.03.2021 21:18 5,4 C 4,4 C 2,3 C 76 % 1027,0 hPa 0,0 l/m 0 min 0 min 0 W/m 3,2 km/h (1 Bft) 100,00 %
19.03.2021 21:20 5,4 C 4,4 C 2,3 C 76 % 1027,1 hPa 0,0 l/m 0 min 0 min 0 W/m 3,2 km/h (1 Bft) 97,83 %
19.03.2021 21:22 5,4 C 4,4 C 2,3 C 76 % 1027,1 hPa 0,0 l/m 0 min 0 min 0 W/m 3,2 km/h (1 Bft) 95,74 %
19.03.2021 21:24 5,4 C 4,4 C 2,3 C 76 % 1027,1 hPa 0,0 l/m 0 min 0 min 0 W/m 0,0 km/h (0 Bft) 97,87 %
19.03.2021 21:26 5,3 C 4,4 C 2,3 C 76 % 1027,1 hPa 0,0 l/m 0 min 0 min 0 W/m 3,2 km/h (1 Bft) 97,87 %
19.03.2021 21:28 5,3 C 4,4 C 2,3 C 76 % 1027,1 hPa 0,0 l/m 0 min 0 min 0 W/m 3,2 km/h (1 Bft) 97,87 %
19.03.2021 21:30 5,3 C 4,4 C 2,3 C 76 % 1027,1 hPa 0,0 l/m 0 min 0 min 0 W/m 3,2 km/h (1 Bft) 97,87 %
19.03.2021 21:32 5,3 C 4,4 C 2,3 C 76 % 1027,0 hPa 0,0 l/m 0 min 0 min 0 W/m 3,2 km/h (1 Bft) 97,83 %
19.03.2021 21:34 5,3 C 4,4 C 2,3 C 76 % 1027,0 hPa 0,0 l/m 0 min 0 min 0 W/m 9,7 km/h (2 Bft) 97,87 %
19.03.2021 21:36 5,3 C 4,4 C 2,3 C 77 % 1027,0 hPa 0,0 l/m 0 min 0 min 0 W/m 3,2 km/h (1 Bft) 95,74 %
19.03.2021 21:38 5,3 C 4,4 C 2,3 C 77 % 1027,0 hPa 0,0 l/m 0 min 0 min 0 W/m 3,2 km/h (1 Bft) 95,74 %
19.03.2021 21:40 5,3 C 4,4 C 2,3 C 77 % 1027,0 hPa 0,0 l/m 0 min 0 min 0 W/m 3,2 km/h (1 Bft) 97,87 %
19.03.2021 21:42 5,3 C 4,4 C 2,3 C 77 % 1027,1 hPa 0,0 l/m 0 min 0 min 0 W/m 0,0 km/h (0 Bft) 97,87 %
19.03.2021 21:44 5,3 C 4,4 C 1,7 C 77 % 1027,1 hPa 0,0 l/m 0 min 0 min 0 W/m 9,7 km/h (2 Bft) 97,83 %
19.03.2021 21:46 5,3 C 4,4 C 1,7 C 77 % 1027,1 hPa 0,0 l/m 0 min 0 min 0 W/m 3,2 km/h (1 Bft) 97,87 %
19.03.2021 21:48 5,3 C 3,9 C 1,7 C 77 % 1027,1 hPa 0,0 l/m 0 min 0 min 0 W/m 3,2 km/h (1 Bft) 97,87 %
19.03.2021 21:50 5,3 C 3,9 C 1,7 C 77 % 1027,2 hPa 0,0 l/m 0 min 0 min 0 W/m 3,2 km/h (1 Bft) 97,87 %
19.03.2021 21:52 5,3 C 3,9 C 1,7 C 77 % 1027,2 hPa 0,0 l/m 0 min 0 min 0 W/m 3,2 km/h (1 Bft) 97,87 %
19.03.2021 21:54 5,2 C 3,9 C 1,7 C 77 % 1027,2 hPa 0,0 l/m 0 min 0 min 0 W/m 6,4 km/h (2 Bft) 97,87 %
19.03.2021 21:56 5,2 C 3,9 C 1,7 C 78 % 1027,2 hPa 0,0 l/m 0 min 0 min 0 W/m 3,2 km/h (1 Bft) 93,48 %
19.03.2021 21:58 5,2 C 3,9 C 1,7 C 78 % 1027,3 hPa 0,0 l/m 0 min 0 min 0 W/m 3,2 km/h (1 Bft) 97,87 %
19.03.2021 22:00 5,2 C 3,9 C 1,7 C 78 % 1027,3 hPa 0,0 l/m 0 min 0 min 0 W/m 3,2 km/h (1 Bft) 97,87 %
19.03.2021 22:02 5,1 C 3,9 C 1,7 C 78 % 1027,2 hPa 0,0 l/m 0 min 0 min 0 W/m 3,2 km/h (1 Bft) 94,44 %
19.03.2021 22:04 5,1 C 3,9 C 1,7 C 78 % 1027,3 hPa 0,0 l/m 0 min 0 min 0 W/m 0,0 km/h (0 Bft) 97,87 %
19.03.2021 22:06 5,1 C 4,4 C 1,7 C 78 % 1027,3 hPa 0,0 l/m 0 min 0 min 0 W/m 3,2 km/h (1 Bft) 95,74 %
19.03.2021 22:08 5,1 C 4,4 C 1,7 C 78 % 1027,3 hPa 0,0 l/m 0 min 0 min 0 W/m 3,2 km/h (1 Bft) 96,55 %
19.03.2021 22:10 5,1 C 4,4 C 1,7 C 78 % 1027,3 hPa 0,0 l/m 0 min 0 min 0 W/m 0,0 km/h (0 Bft) 72,22 %
19.03.2021 22:12 5,1 C 4,4 C 1,7 C 78 % 1027,3 hPa 0,0 l/m 0 min 0 min 0 W/m 0,0 km/h (0 Bft) 70,45 %
19.03.2021 22:14 5,0 C 4,4 C 1,7 C 78 % 1027,3 hPa 0,0 l/m 0 min 0 min 0 W/m 3,2 km/h (1 Bft) 97,87 %
19.03.2021 22:16 5,0 C 4,4 C 1,7 C 78 % 1027,4 hPa 0,0 l/m 0 min 0 min 0 W/m 3,2 km/h (1 Bft) 97,87 %
19.03.2021 22:18 5,0 C 4,4 C 1,7 C 79 % 1027,4 hPa 0,0 l/m 0 min 0 min 0 W/m 3,2 km/h (1 Bft) 93,62 %
19.03.2021 22:20 5,0 C 4,4 C 1,7 C 79 % 1027,4 hPa 0,0 l/m 0 min 0 min 0 W/m 3,2 km/h (1 Bft) 95,83 %
19.03.2021 22:22 5,0 C 4,4 C 1,7 C 79 % 1027,5 hPa 0,0 l/m 0 min 0 min 0 W/m 3,2 km/h (1 Bft) 97,87 %
19.03.2021 22:24 5,0 C 4,4 C 1,7 C 79 % 1027,5 hPa 0,0 l/m 0 min 0 min 0 W/m 3,2 km/h (1 Bft) 97,83 %
19.03.2021 22:26 5,0 C 4,4 C 1,7 C 79 % 1027,5 hPa 0,0 l/m 0 min 0 min 0 W/m 3,2 km/h (1 Bft) 97,87 %
19.03.2021 22:28 5,0 C 4,4 C 2,3 C 79 % 1027,5 hPa 0,0 l/m 0 min 0 min 0 W/m 3,2 km/h (1 Bft) 95,74 %
19.03.2021 22:30 5,0 C 4,4 C 2,3 C 79 % 1027,5 hPa 0,0 l/m 0 min 0 min 0 W/m 3,2 km/h (1 Bft) 97,87 %
19.03.2021 22:32 5,0 C 4,4 C 2,3 C 79 % 1027,6 hPa 0,0 l/m 0 min 0 min 0 W/m 3,2 km/h (1 Bft) 95,74 %
19.03.2021 22:34 5,0 C 4,4 C 2,3 C 79 % 1027,6 hPa 0,0 l/m 0 min 0 min 0 W/m 3,2 km/h (1 Bft) 95,65 %
19.03.2021 22:36 5,0 C 4,4 C 2,3 C 79 % 1027,6 hPa 0,0 l/m 0 min 0 min 0 W/m 3,2 km/h (1 Bft) 97,87 %
19.03.2021 22:38 5,0 C 4,4 C 2,3 C 79 % 1027,7 hPa 0,0 l/m 0 min 0 min 0 W/m 0,0 km/h (0 Bft) 95,74 %
19.03.2021 22:40 5,0 C 4,4 C 1,7 C 79 % 1027,7 hPa 0,0 l/m 0 min 0 min 0 W/m 0,0 km/h (0 Bft) 97,87 %
19.03.2021 22:42 5,0 C 4,4 C 1,7 C 79 % 1027,7 hPa 0,0 l/m 0 min 0 min 0 W/m 3,2 km/h (1 Bft) 100,00 %
19.03.2021 22:44 5,0 C 4,4 C 1,7 C 80 % 1027,8 hPa 0,0 l/m 0 min 0 min 0 W/m 3,2 km/h (1 Bft) 100,00 %
19.03.2021 22:46 5,0 C 4,4 C 1,7 C 80 % 1027,8 hPa 0,0 l/m 0 min 0 min 0 W/m 9,7 km/h (2 Bft) 100,00 %
19.03.2021 22:48 5,0 C 4,4 C 1,7 C 80 % 1027,9 hPa 0,0 l/m 0 min 0 min 0 W/m 3,2 km/h (1 Bft) 100,00 %
19.03.2021 22:50 5,0 C 4,4 C 1,7 C 80 % 1027,8 hPa 0,0 l/m 0 min 0 min 0 W/m 6,4 km/h (2 Bft) 97,87 %
19.03.2021 22:52 5,0 C 3,9 C 1,7 C 80 % 1027,9 hPa 0,0 l/m 0 min 0 min 0 W/m 3,2 km/h (1 Bft) 100,00 %
19.03.2021 22:54 4,9 C 3,9 C 1,7 C 80 % 1027,9 hPa 0,0 l/m 0 min 0 min 0 W/m 3,2 km/h (1 Bft) 100,00 %
19.03.2021 22:56 4,9 C 3,9 C 1,7 C 80 % 1027,9 hPa 0,0 l/m 0 min 0 min 0 W/m 3,2 km/h (1 Bft) 100,00 %
19.03.2021 22:58 4,9 C 3,9 C 1,7 C 80 % 1027,9 hPa 0,0 l/m 0 min 0 min 0 W/m 3,2 km/h (1 Bft) 100,00 %
19.03.2021 23:00 4,8 C 3,9 C 1,1 C 80 % 1028,0 hPa 0,0 l/m 0 min 0 min 0 W/m 6,4 km/h (2 Bft) 100,00 %
19.03.2021 23:02 4,8 C 3,9 C 1,1 C 80 % 1028,0 hPa 0,0 l/m 0 min 0 min 0 W/m 3,2 km/h (1 Bft) 93,62 %
19.03.2021 23:04 4,8 C 3,9 C 1,1 C 80 % 1028,0 hPa 0,0 l/m 0 min 0 min 0 W/m 3,2 km/h (1 Bft) 95,74 %
19.03.2021 23:06 4,7 C 3,9 C 1,1 C 80 % 1028,0 hPa 0,0 l/m 0 min 0 min 0 W/m 3,2 km/h (1 Bft) 97,87 %
19.03.2021 23:08 4,6 C 3,3 C 1,1 C 80 % 1028,1 hPa 0,0 l/m 0 min 0 min 0 W/m 6,4 km/h (2 Bft) 97,87 %
19.03.2021 23:10 4,6 C 3,3 C 1,1 C 80 % 1028,1 hPa 0,0 l/m 0 min 0 min 0 W/m 6,4 km/h (2 Bft) 97,83 %
19.03.2021 23:12 4,5 C 3,3 C 1,1 C 80 % 1028,1 hPa 0,0 l/m 0 min 0 min 0 W/m 6,4 km/h (2 Bft) 97,87 %
19.03.2021 23:14 4,5 C 3,3 C 1,1 C 80 % 1028,1 hPa 0,0 l/m 0 min 0 min 0 W/m 6,4 km/h (2 Bft) 51,16 %
19.03.2021 23:16 4,5 C 3,3 C 1,1 C 80 % 1028,1 hPa 0,0 l/m 0 min 0 min 0 W/m 6,4 km/h (2 Bft) 97,87 %
19.03.2021 23:18 4,4 C 3,3 C 1,1 C 80 % 1028,1 hPa 0,0 l/m 0 min 0 min 0 W/m 6,4 km/h (2 Bft) 97,87 %
19.03.2021 23:20 4,4 C 3,3 C 1,1 C 80 % 1028,2 hPa 0,0 l/m 0 min 0 min 0 W/m 6,4 km/h (2 Bft) 95,92 %
19.03.2021 23:22 4,4 C 3,3 C 1,1 C 80 % 1028,2 hPa 0,0 l/m 0 min 0 min 0 W/m 6,4 km/h (2 Bft) 97,83 %
19.03.2021 23:24 4,3 C 3,3 C 1,1 C 81 % 1028,2 hPa 0,0 l/m 0 min 0 min 0 W/m 3,2 km/h (1 Bft) 97,87 %
19.03.2021 23:26 4,3 C 3,3 C 1,1 C 81 % 1028,2 hPa 0,0 l/m 0 min 0 min 0 W/m 6,4 km/h (2 Bft) 97,87 %
19.03.2021 23:28 4,3 C 3,3 C 1,1 C 81 % 1028,2 hPa 0,0 l/m 0 min 0 min 0 W/m 9,7 km/h (2 Bft) 97,87 %
19.03.2021 23:30 4,3 C 3,3 C 1,1 C 81 % 1028,2 hPa 0,0 l/m 0 min 0 min 0 W/m 3,2 km/h (1 Bft) 97,87 %
19.03.2021 23:32 4,3 C 3,3 C 1,1 C 81 % 1028,2 hPa 0,0 l/m 0 min 0 min 0 W/m 6,4 km/h (2 Bft) 95,74 %
19.03.2021 23:34 4,2 C 3,3 C 1,1 C 81 % 1028,3 hPa 0,0 l/m 0 min 0 min 0 W/m 6,4 km/h (2 Bft) 97,83 %
19.03.2021 23:36 4,2 C 3,3 C 1,1 C 82 % 1028,3 hPa 0,0 l/m 0 min 0 min 0 W/m 3,2 km/h (1 Bft) 97,87 %
19.03.2021 23:38 4,1 C 3,3 C 1,1 C 82 % 1028,3 hPa 0,0 l/m 0 min 0 min 0 W/m 6,4 km/h (2 Bft) 97,87 %
19.03.2021 23:40 4,1 C 3,3 C 1,1 C 82 % 1028,3 hPa 0,0 l/m 0 min 0 min 0 W/m 3,2 km/h (1 Bft) 97,87 %
19.03.2021 23:42 4,1 C 3,3 C 1,1 C 82 % 1028,3 hPa 0,0 l/m 0 min 0 min 0 W/m 3,2 km/h (1 Bft) 97,87 %
19.03.2021 23:44 4,1 C 3,3 C 1,1 C 82 % 1028,3 hPa 0,0 l/m 0 min 0 min 0 W/m 6,4 km/h (2 Bft) 97,83 %
19.03.2021 23:46 4,1 C 3,3 C 1,1 C 82 % 1028,3 hPa 0,0 l/m 0 min 0 min 0 W/m 3,2 km/h (1 Bft) 95,74 %
19.03.2021 23:48 4,1 C 3,3 C 1,1 C 82 % 1028,2 hPa 0,0 l/m 0 min 0 min 0 W/m 9,7 km/h (2 Bft) 97,87 %
19.03.2021 23:50 4,1 C 3,3 C 1,1 C 82 % 1028,3 hPa 0,0 l/m 0 min 0 min 0 W/m 6,4 km/h (2 Bft) 97,87 %
19.03.2021 23:52 4,1 C 3,3 C 1,1 C 82 % 1028,3 hPa 0,0 l/m 0 min 0 min 0 W/m 9,7 km/h (2 Bft) 97,87 %
19.03.2021 23:54 4,1 C 3,3 C 1,1 C 82 % 1028,3 hPa 0,0 l/m 0 min 0 min 0 W/m 6,4 km/h (2 Bft) 97,87 %
19.03.2021 23:56 4,1 C 3,3 C 1,1 C 82 % 1028,3 hPa 0,0 l/m 0 min 0 min 0 W/m 6,4 km/h (2 Bft) 97,83 %
19.03.2021 23:58 4,1 C 3,3 C 1,1 C 82 % 1028,3 hPa 0,0 l/m 0 min 0 min 0 W/m 6,4 km/h (2 Bft) 97,87 %
_ Min-Zeit 07:26 06:36 06:34 15:48 00:00 - - - - 20:48 06:40
Minimum _ 0,6 C 0,0 C -0,5 C 52 % 1019,0 hPa - - - - 0,0 km/h (0 Bft) 37,50 %
_ Max-Zeit 13:46 13:34 11:44 00:00 23:34 08:10 08:42 00:00 13:30 10:56 00:02
Maximum _ 9,7 C 20,6 C 13,9 C 96 % 1028,3 hPa 0,2 l/m 2 min 0 min 851 W/m 41,8 km/h
O-NO (6 Bft)
100,00 %
Durchschnitt _ 5,1 C 6,2 C 3,3 C 77 % 1024,2 hPa #0,2 l/m #6:04 h #0 min. 288 W/m 12,4 km/h (3 Bft) 96,82 %
© 2021 W. Hausmann